Time,TemperatureF,DewpointF,PressureIn,WindDirection,WindDirectionDegrees,WindSpeedMPH,WindSpeedGustMPH,Humidity,HourlyPrecipIn,Conditions,Clouds,dailyrainin,SoftwareType,DateUTC
2013-02-04 00:00:00,55.0,47.2,30.28,NNE,23,0.0,0.0,75,0.00,,,0.00,WUHU216HW,2013-02-04 05:00:00,
2013-02-04 00:01:00,55.0,47.2,30.28,NNE,23,0.0,0.0,75,0.00,,,0.00,WUHU216HW,2013-02-04 05:01:00,
2013-02-04 00:03:00,55.0,47.2,30.28,NNE,23,0.0,0.0,75,0.00,,,0.00,WUHU216HW,2013-02-04 05:03:00,
2013-02-04 00:05:00,54.8,46.8,30.28,NNE,23,0.0,0.0,75,0.00,,,0.00,WUHU216HW,2013-02-04 05:05:00,
2013-02-04 00:06:00,54.8,46.8,30.28,NNE,23,0.0,0.0,75,0.00,,,0.00,WUHU216HW,2013-02-04 05:06:00,
2013-02-04 00:07:00,54.6,46.8,30.28,NNE,23,0.0,0.0,75,0.00,,,0.00,WUHU216HW,2013-02-04 05:07:00,
2013-02-04 00:08:00,54.6,46.8,30.28,NNE,23,0.0,0.0,75,0.00,,,0.00,WUHU216HW,2013-02-04 05:08:00,
2013-02-04 00:11:00,54.6,46.8,30.28,NNE,23,0.0,0.0,75,0.00,,,0.00,WUHU216HW,2013-02-04 05:11:00,
2013-02-04 00:12:00,54.6,46.8,30.28,NNE,23,0.0,0.0,75,0.00,,,0.00,WUHU216HW,2013-02-04 05:12:00,
2013-02-04 00:13:00,54.5,46.7,30.28,NNE,23,0.0,0.0,75,0.00,,,0.00,WUHU216HW,2013-02-04 05:13:00,
2013-02-04 00:16:00,54.3,46.5,30.28,NNE,23,0.0,0.0,75,0.00,,,0.00,WUHU216HW,2013-02-04 05:16:00,
2013-02-04 00:18:00,54.3,46.5,30.28,NNE,23,0.0,0.0,75,0.00,,,0.00,WUHU216HW,2013-02-04 05:18:00,
2013-02-04 00:22:00,54.3,46.5,30.28,NNE,23,0.0,0.0,75,0.00,,,0.00,WUHU216HW,2013-02-04 05:22:00,
2013-02-04 00:23:00,54.3,46.5,30.28,NNE,23,0.0,0.0,75,0.00,,,0.00,WUHU216HW,2013-02-04 05:23:00,
2013-02-04 00:25:00,54.3,46.3,30.28,NNE,23,0.0,0.0,75,0.00,,,0.00,WUHU216HW,2013-02-04 05:25:00,
2013-02-04 00:27:00,54.1,46.7,30.28,NNE,23,0.0,0.0,76,0.00,,,0.00,WUHU216HW,2013-02-04 05:27:00,
2013-02-04 00:28:00,54.1,46.7,30.27,NNE,23,0.0,0.0,76,0.00,,,0.00,WUHU216HW,2013-02-04 05:28:00,
2013-02-04 00:30:00,54.1,46.7,30.27,NNE,23,0.0,0.0,76,0.00,,,0.00,WUHU216HW,2013-02-04 05:30:00,
2013-02-04 00:33:00,53.9,46.5,30.27,NNE,23,0.0,0.0,76,0.00,,,0.00,WUHU216HW,2013-02-04 05:33:00,
2013-02-04 00:34:00,53.9,46.5,30.27,NNE,23,0.0,0.0,76,0.00,,,0.00,WUHU216HW,2013-02-04 05:34:00,
2013-02-04 00:35:00,53.7,46.3,30.27,NNE,23,0.0,0.0,76,0.00,,,0.00,WUHU216HW,2013-02-04 05:35:00,
2013-02-04 00:39:00,53.7,46.3,30.28,NNE,23,0.0,0.0,76,0.00,,,0.00,WUHU216HW,2013-02-04 05:39:00,
2013-02-04 00:42:00,53.4,46.2,30.28,NNE,23,0.0,0.0,76,0.00,,,0.00,WUHU216HW,2013-02-04 05:42:00,
2013-02-04 00:44:00,53.4,46.0,30.28,NNE,23,0.0,0.0,76,0.00,,,0.00,WUHU216HW,2013-02-04 05:44:00,
2013-02-04 00:45:00,53.4,46.0,30.28,NNE,23,0.0,0.0,76,0.00,,,0.00,WUHU216HW,2013-02-04 05:45:00,
2013-02-04 00:46:00,53.4,46.0,30.28,NNE,23,0.0,0.0,76,0.00,,,0.00,WUHU216HW,2013-02-04 05:46:00,
2013-02-04 00:47:00,53.4,46.0,30.28,NNE,23,0.0,0.0,76,0.00,,,0.00,WUHU216HW,2013-02-04 05:47:00,
2013-02-04 00:49:00,53.4,46.0,30.28,NNE,23,0.0,0.0,76,0.00,,,0.00,WUHU216HW,2013-02-04 05:49:00,
2013-02-04 00:51:00,53.4,46.0,30.28,NNE,23,0.0,0.0,76,0.00,,,0.00,WUHU216HW,2013-02-04 05:51:00,
2013-02-04 00:53:00,53.2,45.8,30.28,NNE,23,0.0,0.0,76,0.00,,,0.00,WUHU216HW,2013-02-04 05:53:00,
2013-02-04 00:56:00,53.2,45.8,30.28,NNE,23,0.0,0.0,76,0.00,,,0.00,WUHU216HW,2013-02-04 05:56:00,
2013-02-04 00:57:00,53.2,45.8,30.28,NNE,23,0.0,0.0,76,0.00,,,0.00,WUHU216HW,2013-02-04 05:57:00,
2013-02-04 00:58:00,53.2,45.8,30.28,NNE,23,0.0,0.0,76,0.00,,,0.00,WUHU216HW,2013-02-04 05:58:00,
2013-02-04 01:01:00,52.8,45.5,30.28,NNE,23,0.0,0.0,76,0.00,,,0.00,WUHU216HW,2013-02-04 06:01:00,
2013-02-04 01:02:00,52.8,45.5,30.27,NNE,23,0.0,0.0,76,0.00,,,0.00,WUHU216HW,2013-02-04 06:02:00,
2013-02-04 01:03:00,52.8,45.5,30.27,NNE,23,0.0,0.0,76,0.00,,,0.00,WUHU216HW,2013-02-04 06:03:00,
2013-02-04 01:05:00,52.8,45.5,30.27,NNE,23,0.0,0.0,76,0.00,,,0.00,WUHU216HW,2013-02-04 06:05:00,
2013-02-04 01:06:00,52.8,45.5,30.27,NNE,23,0.0,0.0,76,0.00,,,0.00,WUHU216HW,2013-02-04 06:06:00,
2013-02-04 01:08:00,52.8,45.5,30.28,NNE,23,0.0,0.0,76,0.00,,,0.00,WUHU216HW,2013-02-04 06:08:00,
2013-02-04 01:09:00,52.8,45.8,30.27,NNE,23,0.0,0.0,77,0.00,,,0.00,WUHU216HW,2013-02-04 06:09:00,
2013-02-04 01:11:00,52.7,45.6,30.27,NNE,23,0.0,0.0,77,0.00,,,0.00,WUHU216HW,2013-02-04 06:11:00,
2013-02-04 01:12:00,52.7,45.6,30.27,NNE,23,0.0,0.0,77,0.00,,,0.00,WUHU216HW,2013-02-04 06:12:00,
2013-02-04 01:13:00,52.7,45.6,30.27,NNE,23,0.0,0.0,77,0.00,,,0.00,WUHU216HW,2013-02-04 06:13:00,
2013-02-04 01:14:00,52.7,45.6,30.28,NNE,23,0.0,0.0,77,0.00,,,0.00,WUHU216HW,2013-02-04 06:14:00,
2013-02-04 01:16:00,52.7,45.6,30.27,NNE,23,0.0,0.0,77,0.00,,,0.00,WUHU216HW,2013-02-04 06:16:00,
2013-02-04 01:18:00,52.5,45.5,30.27,NNE,23,0.0,0.0,77,0.00,,,0.00,WUHU216HW,2013-02-04 06:18:00,
2013-02-04 01:20:00,52.5,45.1,30.27,NNE,23,0.0,0.0,76,0.00,,,0.00,WUHU216HW,2013-02-04 06:20:00,
2013-02-04 01:22:00,52.5,45.1,30.27,NNE,23,0.0,0.0,76,0.00,,,0.00,WUHU216HW,2013-02-04 06:22:00,
2013-02-04 01:24:00,52.5,45.5,30.27,NNE,23,0.0,0.0,77,0.00,,,0.00,WUHU216HW,2013-02-04 06:24:00,
2013-02-04 01:25:00,52.3,45.3,30.27,NNE,23,0.0,0.0,77,0.00,,,0.00,WUHU216HW,2013-02-04 06:25:00,
2013-02-04 01:27:00,52.3,45.3,30.27,NNE,23,0.0,0.0,77,0.00,,,0.00,WUHU216HW,2013-02-04 06:27:00,
2013-02-04 01:30:00,52.3,45.3,30.28,NNE,23,0.0,0.0,77,0.00,,,0.00,WUHU216HW,2013-02-04 06:30:00,
2013-02-04 01:32:00,52.3,45.3,30.27,NNE,23,0.0,0.0,77,0.00,,,0.00,WUHU216HW,2013-02-04 06:32:00,
2013-02-04 01:35:00,52.3,45.3,30.28,NNE,23,0.0,0.0,77,0.00,,,0.00,WUHU216HW,2013-02-04 06:35:00,
2013-02-04 01:36:00,52.3,45.3,30.28,NNE,23,0.0,0.0,77,0.00,,,0.00,WUHU216HW,2013-02-04 06:36:00,
2013-02-04 01:38:00,52.1,45.1,30.27,NNE,23,0.0,0.0,77,0.00,,,0.00,WUHU216HW,2013-02-04 06:38:00,
2013-02-04 01:41:00,52.1,45.1,30.27,NNE,23,0.0,0.0,77,0.00,,,0.00,WUHU216HW,2013-02-04 06:41:00,
2013-02-04 01:42:00,52.1,45.1,30.27,NNE,23,0.0,0.0,77,0.00,,,0.00,WUHU216HW,2013-02-04 06:42:00,
2013-02-04 01:45:00,52.1,45.1,30.27,NNE,23,0.0,0.0,77,0.00,,,0.00,WUHU216HW,2013-02-04 06:45:00,
2013-02-04 01:46:00,52.1,45.1,30.27,NNE,23,0.0,0.0,77,0.00,,,0.00,WUHU216HW,2013-02-04 06:46:00,
2013-02-04 01:47:00,52.1,44.9,30.27,NNE,23,0.0,0.0,77,0.00,,,0.00,WUHU216HW,2013-02-04 06:47:00,
2013-02-04 01:51:00,51.9,44.9,30.27,NNE,23,0.0,0.0,77,0.00,,,0.00,WUHU216HW,2013-02-04 06:51:00,
2013-02-04 01:52:00,51.9,44.9,30.27,NNE,23,0.0,0.0,77,0.00,,,0.00,WUHU216HW,2013-02-04 06:52:00,
2013-02-04 01:53:00,51.9,44.9,30.27,NNE,23,0.0,0.0,77,0.00,,,0.00,WUHU216HW,2013-02-04 06:53:00,
2013-02-04 01:56:00,51.8,44.8,30.27,NNE,23,0.0,0.0,77,0.00,,,0.00,WUHU216HW,2013-02-04 06:56:00,
2013-02-04 01:57:00,51.8,44.8,30.27,NNE,23,0.0,0.0,77,0.00,,,0.00,WUHU216HW,2013-02-04 06:57:00,
2013-02-04 01:59:00,51.8,44.8,30.27,NNE,23,0.0,0.0,77,0.00,,,0.00,WUHU216HW,2013-02-04 06:59:00,
2013-02-04 02:02:00,51.8,44.8,30.27,NNE,23,0.0,0.0,77,0.00,,,0.00,WUHU216HW,2013-02-04 07:02:00,
2013-02-04 02:03:00,51.6,44.6,30.27,NNE,23,0.0,0.0,77,0.00,,,0.00,WUHU216HW,2013-02-04 07:03:00,
2013-02-04 02:04:00,51.6,44.6,30.27,NNE,23,0.0,0.0,77,0.00,,,0.00,WUHU216HW,2013-02-04 07:04:00,
2013-02-04 02:07:00,51.6,44.6,30.26,NNE,23,0.0,0.0,77,0.00,,,0.00,WUHU216HW,2013-02-04 07:07:00,
2013-02-04 02:08:00,51.6,44.6,30.26,NNE,23,0.0,0.0,77,0.00,,,0.00,WUHU216HW,2013-02-04 07:08:00,
2013-02-04 02:11:00,51.4,44.4,30.27,NNE,23,0.0,0.0,77,0.00,,,0.00,WUHU216HW,2013-02-04 07:11:00,
2013-02-04 02:12:00,51.4,44.4,30.27,NNE,23,0.0,0.0,77,0.00,,,0.00,WUHU216HW,2013-02-04 07:12:00,
2013-02-04 02:13:00,51.4,44.4,30.26,NNE,23,0.0,0.0,77,0.00,,,0.00,WUHU216HW,2013-02-04 07:13:00,
2013-02-04 02:15:00,51.4,44.4,30.26,NNE,23,0.0,0.0,77,0.00,,,0.00,WUHU216HW,2013-02-04 07:15:00,
2013-02-04 02:16:00,51.4,44.4,30.26,NNE,23,0.0,0.0,77,0.00,,,0.00,WUHU216HW,2013-02-04 07:16:00,
2013-02-04 02:18:00,51.2,44.2,30.26,NNE,23,0.0,0.0,77,0.00,,,0.00,WUHU216HW,2013-02-04 07:18:00,
2013-02-04 02:19:00,51.2,44.2,30.26,NNE,23,0.0,0.0,77,0.00,,,0.00,WUHU216HW,2013-02-04 07:19:00,
2013-02-04 02:21:00,51.0,44.2,30.26,NNE,23,0.0,0.0,77,0.00,,,0.00,WUHU216HW,2013-02-04 07:21:00,
2013-02-04 02:24:00,51.0,44.1,30.26,North,0,0.0,0.0,77,0.00,,,0.00,WUHU216HW,2013-02-04 07:24:00,
2013-02-04 02:25:00,51.0,44.1,30.27,NNE,23,0.0,0.0,77,0.00,,,0.00,WUHU216HW,2013-02-04 07:25:00,
2013-02-04 02:26:00,51.0,44.1,30.26,NNE,23,0.0,0.0,77,0.00,,,0.00,WUHU216HW,2013-02-04 07:26:00,
2013-02-04 02:27:00,51.0,44.1,30.26,NNE,23,0.0,0.0,77,0.00,,,0.00,WUHU216HW,2013-02-04 07:27:00,
2013-02-04 02:29:00,50.9,43.9,30.26,NNE,23,0.0,0.0,77,0.00,,,0.00,WUHU216HW,2013-02-04 07:29:00,
2013-02-04 02:30:00,50.9,43.9,30.26,NNE,23,0.0,0.0,77,0.00,,,0.00,WUHU216HW,2013-02-04 07:30:00,
2013-02-04 02:32:00,50.7,43.7,30.27,NNE,23,0.0,0.0,77,0.00,,,0.00,WUHU216HW,2013-02-04 07:32:00,
2013-02-04 02:35:00,50.7,43.7,30.27,NNE,23,0.0,0.0,77,0.00,,,0.00,WUHU216HW,2013-02-04 07:35:00,
2013-02-04 02:37:00,50.7,43.7,30.27,NNE,23,0.0,0.0,77,0.00,,,0.00,WUHU216HW,2013-02-04 07:37:00,
2013-02-04 02:38:00,50.7,43.7,30.27,NNE,23,0.0,0.0,77,0.00,,,0.00,WUHU216HW,2013-02-04 07:38:00,
2013-02-04 02:40:00,50.5,43.5,30.27,NNE,23,0.0,0.0,77,0.00,,,0.00,WUHU216HW,2013-02-04 07:40:00,
2013-02-04 02:42:00,50.5,43.5,30.27,NNE,23,0.0,0.0,77,0.00,,,0.00,WUHU216HW,2013-02-04 07:42:00,
2013-02-04 02:43:00,50.5,43.5,30.27,NNE,23,0.0,0.0,77,0.00,,,0.00,WUHU216HW,2013-02-04 07:43:00,
2013-02-04 02:46:00,50.5,43.5,30.26,NNE,23,0.0,0.0,77,0.00,,,0.00,WUHU216HW,2013-02-04 07:46:00,
2013-02-04 02:47:00,50.3,43.3,30.27,NNE,23,0.0,0.0,77,0.00,,,0.00,WUHU216HW,2013-02-04 07:47:00,
2013-02-04 02:48:00,50.3,43.3,30.27,NNE,23,0.0,0.0,77,0.00,,,0.00,WUHU216HW,2013-02-04 07:48:00,
2013-02-04 02:52:00,50.3,43.3,30.27,North,0,0.0,0.0,77,0.00,,,0.00,WUHU216HW,2013-02-04 07:52:00,
2013-02-04 02:53:00,50.1,43.2,30.27,NNE,23,0.0,0.0,77,0.00,,,0.00,WUHU216HW,2013-02-04 07:53:00,
2013-02-04 02:54:00,50.1,43.2,30.27,NNE,23,0.0,0.0,77,0.00,,,0.00,WUHU216HW,2013-02-04 07:54:00,
2013-02-04 02:57:00,50.1,43.2,30.27,NNE,23,0.0,0.0,77,0.00,,,0.00,WUHU216HW,2013-02-04 07:57:00,
2013-02-04 02:58:00,50.1,43.2,30.28,NNE,23,0.0,0.0,77,0.00,,,0.00,WUHU216HW,2013-02-04 07:58:00,
2013-02-04 02:59:00,50.1,43.2,30.27,NNE,23,0.0,0.0,77,0.00,,,0.00,WUHU216HW,2013-02-04 07:59:00,
2013-02-04 03:03:00,50.1,43.2,30.27,NNE,23,0.0,0.0,77,0.00,,,0.00,WUHU216HW,2013-02-04 08:03:00,
2013-02-04 03:04:00,50.1,43.2,30.28,NNE,23,0.0,0.0,77,0.00,,,0.00,WUHU216HW,2013-02-04 08:04:00,
2013-02-04 03:05:00,50.0,43.0,30.28,NNE,23,0.0,0.0,77,0.00,,,0.00,WUHU216HW,2013-02-04 08:05:00,
2013-02-04 03:08:00,50.0,43.0,30.28,NNE,23,0.0,0.0,77,0.00,,,0.00,WUHU216HW,2013-02-04 08:08:00,
2013-02-04 03:09:00,49.8,42.8,30.28,NNE,23,0.0,0.0,77,0.00,,,0.00,WUHU216HW,2013-02-04 08:09:00,
2013-02-04 03:10:00,49.8,42.8,30.28,NNE,23,0.0,0.0,77,0.00,,,0.00,WUHU216HW,2013-02-04 08:10:00,
2013-02-04 03:11:00,49.8,42.8,30.28,NNE,23,0.0,0.0,77,0.00,,,0.00,WUHU216HW,2013-02-04 08:11:00,
2013-02-04 03:13:00,49.8,42.8,30.28,NNE,23,0.0,0.0,77,0.00,,,0.00,WUHU216HW,2013-02-04 08:13:00,
2013-02-04 03:14:00,49.8,43.1,30.28,NNE,23,0.0,0.0,78,0.00,,,0.00,WUHU216HW,2013-02-04 08:14:00,
2013-02-04 03:15:00,49.8,43.1,30.28,NNE,23,0.0,0.0,78,0.00,,,0.00,WUHU216HW,2013-02-04 08:15:00,
2013-02-04 03:17:00,49.8,43.1,30.28,NNE,23,0.0,0.0,78,0.00,,,0.00,WUHU216HW,2013-02-04 08:17:00,
2013-02-04 03:19:00,49.6,43.0,30.27,NNE,23,0.0,0.0,78,0.00,,,0.00,WUHU216HW,2013-02-04 08:19:00,
2013-02-04 03:20:00,49.6,43.0,30.27,NNE,23,0.0,0.0,78,0.00,,,0.00,WUHU216HW,2013-02-04 08:20:00,
2013-02-04 03:21:00,49.8,43.0,30.28,NNE,23,0.0,0.0,78,0.00,,,0.00,WUHU216HW,2013-02-04 08:21:00,
2013-02-04 03:23:00,49.8,43.1,30.27,NNE,23,2.2,2.2,78,0.00,,,0.00,WUHU216HW,2013-02-04 08:23:00,
2013-02-04 03:25:00,49.8,43.1,30.28,NNE,23,2.2,2.2,78,0.00,,,0.00,WUHU216HW,2013-02-04 08:25:00,
2013-02-04 03:27:00,49.8,43.1,30.27,NE,45,2.6,2.6,78,0.00,,,0.00,WUHU216HW,2013-02-04 08:27:00,
2013-02-04 03:29:00,49.8,43.5,30.27,NNE,23,2.0,2.6,79,0.00,,,0.00,WUHU216HW,2013-02-04 08:29:00,
2013-02-04 03:31:00,49.8,43.5,30.27,NNE,23,0.8,2.6,79,0.00,,,0.00,WUHU216HW,2013-02-04 08:31:00,
2013-02-04 03:32:00,49.8,43.5,30.27,NNE,23,0.8,2.6,79,0.00,,,0.00,WUHU216HW,2013-02-04 08:32:00,
2013-02-04 03:33:00,49.8,43.5,30.27,NNE,23,0.8,2.6,79,0.00,,,0.00,WUHU216HW,2013-02-04 08:33:00,
2013-02-04 03:34:00,49.8,43.5,30.27,NNE,23,0.0,2.6,79,0.00,,,0.00,WUHU216HW,2013-02-04 08:34:00,
2013-02-04 03:37:00,49.8,43.5,30.27,NNE,23,0.0,2.4,79,0.00,,,0.00,WUHU216HW,2013-02-04 08:37:00,
2013-02-04 03:38:00,49.8,43.5,30.27,NNE,23,1.7,1.7,79,0.00,,,0.00,WUHU216HW,2013-02-04 08:38:00,
2013-02-04 03:40:00,49.8,43.5,30.27,NNE,23,0.0,1.7,79,0.00,,,0.00,WUHU216HW,2013-02-04 08:40:00,
2013-02-04 03:42:00,49.8,43.5,30.27,NNE,23,0.0,1.7,79,0.00,,,0.00,WUHU216HW,2013-02-04 08:42:00,
2013-02-04 03:43:00,49.8,43.5,30.27,NNE,23,0.0,1.7,79,0.00,,,0.00,WUHU216HW,2013-02-04 08:43:00,
2013-02-04 03:44:00,49.8,43.5,30.27,NNE,23,0.0,1.7,79,0.00,,,0.00,WUHU216HW,2013-02-04 08:44:00,
2013-02-04 03:45:00,49.8,43.5,30.27,NNE,23,0.0,1.7,79,0.00,,,0.00,WUHU216HW,2013-02-04 08:45:00,
2013-02-04 03:48:00,49.8,43.5,30.27,NNE,23,0.0,0.0,79,0.00,,,0.00,WUHU216HW,2013-02-04 08:48:00,
2013-02-04 03:49:00,49.8,43.8,30.27,NNE,23,0.0,0.0,80,0.00,,,0.00,WUHU216HW,2013-02-04 08:49:00,
2013-02-04 03:51:00,49.8,43.8,30.27,NNE,23,0.0,0.0,80,0.00,,,0.00,WUHU216HW,2013-02-04 08:51:00,
2013-02-04 03:53:00,49.8,43.8,30.27,NNE,23,0.8,0.8,80,0.00,,,0.00,WUHU216HW,2013-02-04 08:53:00,
2013-02-04 03:55:00,49.8,43.8,30.26,NNE,23,0.8,0.8,80,0.00,,,0.00,WUHU216HW,2013-02-04 08:55:00,
2013-02-04 03:57:00,49.8,43.8,30.27,NNE,23,0.0,1.1,80,0.00,,,0.00,WUHU216HW,2013-02-04 08:57:00,
2013-02-04 03:59:00,49.6,43.8,30.27,NNE,23,0.0,1.1,80,0.00,,,0.00,WUHU216HW,2013-02-04 08:59:00,
2013-02-04 04:00:00,49.6,43.7,30.27,NNE,23,0.0,1.1,80,0.00,,,0.00,WUHU216HW,2013-02-04 09:00:00,
2013-02-04 04:02:00,49.6,43.7,30.27,NNE,23,0.8,1.1,80,0.00,,,0.00,WUHU216HW,2013-02-04 09:02:00,
2013-02-04 04:04:00,49.6,43.7,30.27,NNE,23,0.8,1.1,80,0.00,,,0.00,WUHU216HW,2013-02-04 09:04:00,
2013-02-04 04:05:00,49.6,43.7,30.27,NNE,23,2.4,2.4,80,0.00,,,0.00,WUHU216HW,2013-02-04 09:05:00,
2013-02-04 04:07:00,49.6,43.7,30.27,NNE,23,3.1,3.1,80,0.00,,,0.00,WUHU216HW,2013-02-04 09:07:00,
2013-02-04 04:10:00,49.6,43.7,30.27,NNE,23,2.6,3.1,80,0.00,,,0.00,WUHU216HW,2013-02-04 09:10:00,
2013-02-04 04:11:00,49.6,43.7,30.27,NNE,23,2.6,3.1,80,0.00,,,0.00,WUHU216HW,2013-02-04 09:11:00,
2013-02-04 04:14:00,49.6,43.7,30.27,NNE,23,1.9,3.1,80,0.00,,,0.00,WUHU216HW,2013-02-04 09:14:00,
2013-02-04 04:16:00,49.6,43.7,30.27,NNE,23,0.0,3.1,80,0.00,,,0.00,WUHU216HW,2013-02-04 09:16:00,
2013-02-04 04:17:00,49.6,43.7,30.27,North,0,0.0,2.6,80,0.00,,,0.00,WUHU216HW,2013-02-04 09:17:00,
2013-02-04 04:19:00,49.6,43.5,30.27,North,0,1.1,2.6,80,0.00,,,0.00,WUHU216HW,2013-02-04 09:19:00,
2013-02-04 04:21:00,49.4,43.5,30.26,NE,41,1.8,5.3,80,0.00,,,0.00,WUHU216HW,2013-02-04 09:21:00,
2013-02-04 04:22:00,49.4,43.5,30.26,NE,41,1.8,5.3,80,0.00,,,0.00,WUHU216HW,2013-02-04 09:22:00,
2013-02-04 04:23:00,49.2,43.3,30.26,North,0,1.7,5.3,80,0.00,,,0.00,WUHU216HW,2013-02-04 09:23:00,
2013-02-04 04:24:00,49.2,43.3,30.26,NNE,23,3.8,5.3,80,0.00,,,0.00,WUHU216HW,2013-02-04 09:24:00,
2013-02-04 04:28:00,49.2,43.3,30.26,NNE,23,0.4,5.3,80,0.00,,,0.00,WUHU216HW,2013-02-04 09:28:00,
2013-02-04 04:31:00,49.2,43.3,30.26,NNE,23,1.3,3.8,80,0.00,,,0.00,WUHU216HW,2013-02-04 09:31:00,
2013-02-04 04:33:00,49.2,43.3,30.26,NNE,23,0.6,3.8,80,0.00,,,0.00,WUHU216HW,2013-02-04 09:33:00,
2013-02-04 04:34:00,49.2,43.3,30.26,NNE,23,2.0,3.8,80,0.00,,,0.00,WUHU216HW,2013-02-04 09:34:00,
2013-02-04 04:37:00,49.2,43.3,30.26,NNE,23,0.2,2.0,80,0.00,,,0.00,WUHU216HW,2013-02-04 09:37:00,
2013-02-04 04:38:00,49.2,43.3,30.26,NNE,23,0.0,2.0,80,0.00,,,0.00,WUHU216HW,2013-02-04 09:38:00,
2013-02-04 04:39:00,49.2,43.3,30.26,NNE,23,0.0,2.0,80,0.00,,,0.00,WUHU216HW,2013-02-04 09:39:00,
2013-02-04 04:42:00,49.2,43.3,30.26,NNE,23,0.0,2.0,80,0.00,,,0.00,WUHU216HW,2013-02-04 09:42:00,
2013-02-04 04:43:00,49.2,43.3,30.26,NNE,23,0.0,0.8,80,0.00,,,0.00,WUHU216HW,2013-02-04 09:43:00,
2013-02-04 04:44:00,49.2,43.3,30.26,NNE,23,0.6,0.6,80,0.00,,,0.00,WUHU216HW,2013-02-04 09:44:00,
2013-02-04 04:47:00,49.1,43.1,30.26,North,0,2.9,2.9,80,0.00,,,0.00,WUHU216HW,2013-02-04 09:47:00,
2013-02-04 04:49:00,49.1,43.1,30.26,NNE,23,0.2,2.9,80,0.00,,,0.00,WUHU216HW,2013-02-04 09:49:00,
2013-02-04 04:50:00,49.1,43.1,30.26,NNE,23,0.2,2.9,80,0.00,,,0.00,WUHU216HW,2013-02-04 09:50:00,
2013-02-04 04:54:00,49.1,43.4,30.27,NNE,23,0.6,2.9,81,0.00,,,0.00,WUHU216HW,2013-02-04 09:54:00,
2013-02-04 04:55:00,49.1,43.4,30.27,NNE,23,0.6,2.9,81,0.00,,,0.00,WUHU216HW,2013-02-04 09:55:00,
2013-02-04 04:56:00,49.1,43.4,30.27,NNE,23,0.0,2.9,81,0.00,,,0.00,WUHU216HW,2013-02-04 09:56:00,
2013-02-04 05:00:00,49.1,43.4,30.27,NNE,23,0.0,0.6,81,0.00,,,0.00,WUHU216HW,2013-02-04 10:00:00,
2013-02-04 05:02:00,49.1,43.4,30.27,NNE,23,0.0,0.6,81,0.00,,,0.00,WUHU216HW,2013-02-04 10:02:00,
2013-02-04 05:05:00,49.1,43.4,30.28,NNE,23,0.0,0.0,81,0.00,,,0.00,WUHU216HW,2013-02-04 10:05:00,
2013-02-04 05:06:00,49.1,43.4,30.28,NNE,23,0.0,0.0,81,0.00,,,0.00,WUHU216HW,2013-02-04 10:06:00,
2013-02-04 05:07:00,49.1,43.4,30.28,NNE,23,0.0,0.0,81,0.00,,,0.00,WUHU216HW,2013-02-04 10:07:00,
2013-02-04 05:08:00,49.1,43.4,30.27,NNE,23,0.0,0.0,81,0.00,,,0.00,WUHU216HW,2013-02-04 10:08:00,
2013-02-04 05:11:00,48.9,43.2,30.27,NNE,23,0.0,0.0,81,0.00,,,0.00,WUHU216HW,2013-02-04 10:11:00,
2013-02-04 05:12:00,48.9,43.2,30.28,NNE,23,0.0,0.0,81,0.00,,,0.00,WUHU216HW,2013-02-04 10:12:00,
2013-02-04 05:13:00,48.9,43.2,30.28,NNE,23,0.0,0.0,81,0.00,,,0.00,WUHU216HW,2013-02-04 10:13:00,
2013-02-04 05:14:00,48.9,43.2,30.28,NNE,23,0.0,0.0,81,0.00,,,0.00,WUHU216HW,2013-02-04 10:14:00,
2013-02-04 05:16:00,48.9,43.2,30.27,NNE,23,0.0,0.0,81,0.00,,,0.00,WUHU216HW,2013-02-04 10:16:00,
2013-02-04 05:18:00,48.9,43.2,30.28,NNE,23,0.0,0.0,81,0.00,,,0.00,WUHU216HW,2013-02-04 10:18:00,
2013-02-04 05:19:00,48.9,43.2,30.28,NNE,23,0.0,0.0,81,0.00,,,0.00,WUHU216HW,2013-02-04 10:19:00,
2013-02-04 05:22:00,48.7,43.1,30.28,NNE,23,0.0,0.0,81,0.00,,,0.00,WUHU216HW,2013-02-04 10:22:00,
2013-02-04 05:23:00,48.7,43.1,30.28,NNE,23,0.0,0.0,81,0.00,,,0.00,WUHU216HW,2013-02-04 10:23:00,
2013-02-04 05:24:00,48.7,43.1,30.28,NNE,23,0.0,0.0,81,0.00,,,0.00,WUHU216HW,2013-02-04 10:24:00,
2013-02-04 05:25:00,48.7,43.1,30.28,NNE,23,0.0,0.0,81,0.00,,,0.00,WUHU216HW,2013-02-04 10:25:00,
2013-02-04 05:27:00,48.7,43.1,30.28,NNE,23,0.0,0.0,81,0.00,,,0.00,WUHU216HW,2013-02-04 10:27:00,
2013-02-04 05:28:00,48.7,43.1,30.28,NNE,23,0.0,0.0,81,0.00,,,0.00,WUHU216HW,2013-02-04 10:28:00,
2013-02-04 05:30:00,48.7,43.1,30.28,NNE,23,0.0,0.0,81,0.00,,,0.00,WUHU216HW,2013-02-04 10:30:00,
2013-02-04 05:31:00,48.7,43.1,30.28,NNE,23,0.0,0.0,81,0.00,,,0.00,WUHU216HW,2013-02-04 10:31:00,
2013-02-04 05:33:00,48.5,42.9,30.28,NNE,23,0.0,0.0,81,0.00,,,0.00,WUHU216HW,2013-02-04 10:33:00,
2013-02-04 05:34:00,48.5,42.9,30.28,NNE,23,0.0,0.0,81,0.00,,,0.00,WUHU216HW,2013-02-04 10:34:00,
2013-02-04 05:35:00,48.5,42.9,30.28,NNE,23,0.0,0.0,81,0.00,,,0.00,WUHU216HW,2013-02-04 10:35:00,
2013-02-04 05:36:00,48.5,42.9,30.28,NNE,23,0.0,0.0,81,0.00,,,0.00,WUHU216HW,2013-02-04 10:36:00,
2013-02-04 05:40:00,48.3,42.7,30.28,NNE,23,0.0,0.0,81,0.00,,,0.00,WUHU216HW,2013-02-04 10:40:00,
2013-02-04 05:41:00,48.3,42.7,30.28,NNE,23,0.0,0.0,81,0.00,,,0.00,WUHU216HW,2013-02-04 10:41:00,
2013-02-04 05:42:00,48.3,42.7,30.28,NNE,23,0.0,0.0,81,0.00,,,0.00,WUHU216HW,2013-02-04 10:42:00,
2013-02-04 05:45:00,48.3,42.7,30.28,NNE,23,0.0,0.0,81,0.00,,,0.00,WUHU216HW,2013-02-04 10:45:00,
2013-02-04 05:46:00,48.3,42.7,30.28,NNE,23,0.0,0.0,81,0.00,,,0.00,WUHU216HW,2013-02-04 10:46:00,
2013-02-04 05:47:00,48.3,42.7,30.28,NNE,23,0.0,0.0,81,0.00,,,0.00,WUHU216HW,2013-02-04 10:47:00,
2013-02-04 05:48:00,48.2,42.5,30.28,NNE,23,0.0,0.0,81,0.00,,,0.00,WUHU216HW,2013-02-04 10:48:00,
2013-02-04 05:50:00,48.2,42.5,30.28,NNE,23,0.0,0.0,81,0.00,,,0.00,WUHU216HW,2013-02-04 10:50:00,
2013-02-04 05:51:00,48.2,42.5,30.28,NNE,23,0.0,0.0,81,0.00,,,0.00,WUHU216HW,2013-02-04 10:51:00,
2013-02-04 05:53:00,48.2,42.5,30.28,NNE,23,0.0,0.0,81,0.00,,,0.00,WUHU216HW,2013-02-04 10:53:00,
2013-02-04 05:55:00,48.0,42.4,30.28,NNE,23,0.0,0.0,81,0.00,,,0.00,WUHU216HW,2013-02-04 10:55:00,
2013-02-04 05:57:00,48.0,42.4,30.28,NNE,23,0.0,0.0,81,0.00,,,0.00,WUHU216HW,2013-02-04 10:57:00,
2013-02-04 05:59:00,48.0,42.4,30.28,NNE,23,0.0,0.0,81,0.00,,,0.00,WUHU216HW,2013-02-04 10:59:00,
2013-02-04 06:00:00,48.0,42.4,30.28,NNE,23,0.0,0.0,81,0.00,,,0.00,WUHU216HW,2013-02-04 11:00:00,
2013-02-04 06:01:00,48.0,42.4,30.28,NNE,23,0.0,0.0,81,0.00,,,0.00,WUHU216HW,2013-02-04 11:01:00,
2013-02-04 06:03:00,48.0,42.4,30.28,NNE,23,0.0,0.0,81,0.00,,,0.00,WUHU216HW,2013-02-04 11:03:00,
2013-02-04 06:05:00,48.0,42.4,30.28,NNE,23,0.0,0.0,81,0.00,,,0.00,WUHU216HW,2013-02-04 11:05:00,
2013-02-04 06:06:00,48.0,42.4,30.28,NNE,23,0.0,0.0,81,0.00,,,0.00,WUHU216HW,2013-02-04 11:06:00,
2013-02-04 06:07:00,48.0,42.4,30.28,NNE,23,0.0,0.0,81,0.00,,,0.00,WUHU216HW,2013-02-04 11:07:00,
2013-02-04 06:08:00,48.0,42.4,30.28,NNE,23,0.0,0.0,81,0.00,,,0.00,WUHU216HW,2013-02-04 11:08:00,
2013-02-04 06:11:00,48.0,42.4,30.28,NNE,23,0.0,0.0,81,0.00,,,0.00,WUHU216HW,2013-02-04 11:11:00,
2013-02-04 06:12:00,48.0,42.2,30.28,NNE,23,0.0,0.0,81,0.00,,,0.00,WUHU216HW,2013-02-04 11:12:00,
2013-02-04 06:13:00,47.8,42.2,30.28,NNE,23,0.0,0.0,81,0.00,,,0.00,WUHU216HW,2013-02-04 11:13:00,
2013-02-04 06:14:00,47.8,42.2,30.28,NNE,23,0.0,0.0,81,0.00,,,0.00,WUHU216HW,2013-02-04 11:14:00,
2013-02-04 06:17:00,47.8,42.2,30.28,NNE,23,0.0,0.0,81,0.00,,,0.00,WUHU216HW,2013-02-04 11:17:00,
2013-02-04 06:19:00,47.8,42.2,30.28,NNE,23,0.0,0.0,81,0.00,,,0.00,WUHU216HW,2013-02-04 11:19:00,
2013-02-04 06:22:00,47.8,42.2,30.28,NNE,23,0.0,0.0,81,0.00,,,0.00,WUHU216HW,2013-02-04 11:22:00,
2013-02-04 06:23:00,47.8,42.2,30.28,NNE,23,0.0,0.0,81,0.00,,,0.00,WUHU216HW,2013-02-04 11:23:00,
2013-02-04 06:25:00,47.8,42.2,30.29,NNE,23,0.0,0.0,81,0.00,,,0.00,WUHU216HW,2013-02-04 11:25:00,
2013-02-04 06:27:00,47.6,41.7,30.28,NNE,23,0.0,0.0,80,0.00,,,0.00,WUHU216HW,2013-02-04 11:27:00,
2013-02-04 06:28:00,47.4,41.6,30.28,NNE,23,0.0,0.0,80,0.00,,,0.00,WUHU216HW,2013-02-04 11:28:00,
2013-02-04 06:30:00,47.4,41.6,30.28,NNE,23,0.0,0.0,80,0.00,,,0.00,WUHU216HW,2013-02-04 11:30:00,
2013-02-04 06:31:00,47.4,41.6,30.28,NNE,23,0.0,0.0,80,0.00,,,0.00,WUHU216HW,2013-02-04 11:31:00,
2013-02-04 06:32:00,47.4,41.6,30.28,NNE,23,0.0,0.0,80,0.00,,,0.00,WUHU216HW,2013-02-04 11:32:00,
2013-02-04 06:34:00,47.4,41.6,30.28,NNE,23,0.0,0.0,80,0.00,,,0.00,WUHU216HW,2013-02-04 11:34:00,
2013-02-04 06:35:00,47.3,41.4,30.28,NNE,23,0.0,0.0,80,0.00,,,0.00,WUHU216HW,2013-02-04 11:35:00,
2013-02-04 06:37:00,47.3,41.4,30.28,NNE,23,0.0,0.0,80,0.00,,,0.00,WUHU216HW,2013-02-04 11:37:00,
2013-02-04 06:38:00,47.3,41.4,30.29,NNE,23,0.0,0.0,80,0.00,,,0.00,WUHU216HW,2013-02-04 11:38:00,
2013-02-04 06:39:00,47.3,41.4,30.29,NNE,23,0.0,0.0,80,0.00,,,0.00,WUHU216HW,2013-02-04 11:39:00,
2013-02-04 06:41:00,47.1,41.2,30.28,NNE,23,0.0,0.0,80,0.00,,,0.00,WUHU216HW,2013-02-04 11:41:00,
2013-02-04 06:42:00,47.1,41.2,30.29,NNE,23,0.0,0.0,80,0.00,,,0.00,WUHU216HW,2013-02-04 11:42:00,
2013-02-04 06:45:00,47.1,41.2,30.29,NNE,23,0.0,0.0,80,0.00,,,0.00,WUHU216HW,2013-02-04 11:45:00,
2013-02-04 06:46:00,47.1,41.2,30.29,NNE,23,0.0,0.0,80,0.00,,,0.00,WUHU216HW,2013-02-04 11:46:00,
2013-02-04 06:47:00,47.1,41.2,30.29,NNE,23,0.0,0.0,80,0.00,,,0.00,WUHU216HW,2013-02-04 11:47:00,
2013-02-04 06:50:00,46.9,41.1,30.29,NNE,23,0.0,0.0,80,0.00,,,0.00,WUHU216HW,2013-02-04 11:50:00,
2013-02-04 06:51:00,46.7,40.9,30.29,North,0,0.0,0.0,80,0.00,,,0.00,WUHU216HW,2013-02-04 11:51:00,
2013-02-04 06:52:00,46.7,40.9,30.29,NNE,23,0.0,0.0,80,0.00,,,0.00,WUHU216HW,2013-02-04 11:52:00,
2013-02-04 06:55:00,46.7,40.9,30.29,NNE,23,0.0,0.0,80,0.00,,,0.00,WUHU216HW,2013-02-04 11:55:00,
2013-02-04 06:57:00,46.5,40.8,30.29,NNE,23,0.0,0.0,80,0.00,,,0.00,WUHU216HW,2013-02-04 11:57:00,
2013-02-04 06:58:00,46.5,40.8,30.29,NNE,23,0.0,0.0,80,0.00,,,0.00,WUHU216HW,2013-02-04 11:58:00,
2013-02-04 07:00:00,46.5,40.8,30.29,North,0,0.0,0.0,80,0.00,,,0.00,WUHU216HW,2013-02-04 12:00:00,
2013-02-04 07:02:00,46.4,40.6,30.29,NNE,23,0.0,0.0,80,0.00,,,0.00,WUHU216HW,2013-02-04 12:02:00,
2013-02-04 07:03:00,46.4,40.6,30.29,NNE,23,0.0,0.0,80,0.00,,,0.00,WUHU216HW,2013-02-04 12:03:00,
2013-02-04 07:04:00,46.4,40.6,30.29,NNE,23,0.0,0.0,80,0.00,,,0.00,WUHU216HW,2013-02-04 12:04:00,
2013-02-04 07:06:00,46.2,40.4,30.29,NNE,23,0.0,0.0,80,0.00,,,0.00,WUHU216HW,2013-02-04 12:06:00,
2013-02-04 07:08:00,46.2,40.4,30.29,North,0,0.0,0.0,80,0.00,,,0.00,WUHU216HW,2013-02-04 12:08:00,
2013-02-04 07:09:00,46.2,40.4,30.29,NNE,23,0.0,0.0,80,0.00,,,0.00,WUHU216HW,2013-02-04 12:09:00,
2013-02-04 07:13:00,46.0,40.2,30.29,North,0,0.0,0.0,80,0.00,,,0.00,WUHU216HW,2013-02-04 12:13:00,
2013-02-04 07:15:00,46.0,40.2,30.30,NNE,23,0.0,0.0,80,0.00,,,0.00,WUHU216HW,2013-02-04 12:15:00,
2013-02-04 07:18:00,46.0,40.2,30.30,NNE,23,0.0,0.0,80,0.00,,,0.00,WUHU216HW,2013-02-04 12:18:00,
2013-02-04 07:19:00,46.0,40.2,30.29,NNE,23,0.0,0.0,80,0.00,,,0.00,WUHU216HW,2013-02-04 12:19:00,
2013-02-04 07:20:00,46.0,39.9,30.29,NNE,23,0.0,0.0,79,0.00,,,0.00,WUHU216HW,2013-02-04 12:20:00,
2013-02-04 07:24:00,45.6,39.5,30.29,NNE,23,0.0,0.0,79,0.00,,,0.00,WUHU216HW,2013-02-04 12:24:00,
2013-02-04 07:25:00,45.6,39.5,30.30,NNE,23,0.0,0.0,79,0.00,,,0.00,WUHU216HW,2013-02-04 12:25:00,
2013-02-04 07:26:00,45.6,39.5,30.29,NNE,23,0.0,0.0,79,0.00,,,0.00,WUHU216HW,2013-02-04 12:26:00,
2013-02-04 07:29:00,45.6,39.5,30.30,NNE,23,0.0,0.0,79,0.00,,,0.00,WUHU216HW,2013-02-04 12:29:00,
2013-02-04 07:30:00,45.6,39.5,30.30,NNE,23,0.0,0.0,79,0.00,,,0.00,WUHU216HW,2013-02-04 12:30:00,
2013-02-04 07:31:00,45.6,39.5,30.30,NNE,23,0.0,0.0,79,0.00,,,0.00,WUHU216HW,2013-02-04 12:31:00,
2013-02-04 07:34:00,45.5,39.3,30.30,NNE,23,0.0,0.0,79,0.00,,,0.00,WUHU216HW,2013-02-04 12:34:00,
2013-02-04 07:35:00,45.5,39.3,30.29,NNE,23,0.0,0.0,79,0.00,,,0.00,WUHU216HW,2013-02-04 12:35:00,
2013-02-04 07:36:00,45.5,39.3,30.29,NNE,23,0.0,0.0,79,0.00,,,0.00,WUHU216HW,2013-02-04 12:36:00,
2013-02-04 07:37:00,45.5,39.3,30.29,NNE,23,0.0,0.0,79,0.00,,,0.00,WUHU216HW,2013-02-04 12:37:00,
2013-02-04 07:39:00,45.5,39.3,30.30,NNE,23,0.0,0.0,79,0.00,,,0.00,WUHU216HW,2013-02-04 12:39:00,
2013-02-04 07:40:00,45.5,39.3,30.30,NNE,23,0.0,0.0,79,0.00,,,0.00,WUHU216HW,2013-02-04 12:40:00,
2013-02-04 07:41:00,45.5,39.3,30.30,NNE,23,0.0,0.0,79,0.00,,,0.00,WUHU216HW,2013-02-04 12:41:00,
2013-02-04 07:43:00,45.5,39.3,30.30,NNE,23,0.0,0.0,79,0.00,,,0.00,WUHU216HW,2013-02-04 12:43:00,
2013-02-04 07:45:00,45.3,39.2,30.30,NNE,23,0.0,0.0,79,0.00,,,0.00,WUHU216HW,2013-02-04 12:45:00,
2013-02-04 07:46:00,45.3,39.2,30.30,NNE,23,0.0,0.0,79,0.00,,,0.00,WUHU216HW,2013-02-04 12:46:00,
2013-02-04 07:47:00,45.3,39.5,30.30,NNE,23,0.0,0.0,80,0.00,,,0.00,WUHU216HW,2013-02-04 12:47:00,
2013-02-04 07:48:00,45.3,39.5,30.30,NNE,23,0.0,0.0,80,0.00,,,0.00,WUHU216HW,2013-02-04 12:48:00,
2013-02-04 07:50:00,45.5,39.7,30.31,NNE,23,0.0,0.0,80,0.00,,,0.00,WUHU216HW,2013-02-04 12:50:00,
2013-02-04 07:51:00,45.5,39.7,30.31,NNE,23,0.0,0.0,80,0.00,,,0.00,WUHU216HW,2013-02-04 12:51:00,
2013-02-04 07:52:00,45.5,39.7,30.31,NNE,23,0.0,0.0,80,0.00,,,0.00,WUHU216HW,2013-02-04 12:52:00,
2013-02-04 07:55:00,45.5,39.7,30.31,NNE,23,0.0,0.0,80,0.00,,,0.00,WUHU216HW,2013-02-04 12:55:00,
2013-02-04 07:56:00,45.5,39.7,30.31,NNE,23,0.0,0.0,80,0.00,,,0.00,WUHU216HW,2013-02-04 12:56:00,
2013-02-04 07:58:00,45.5,39.7,30.31,NNE,23,0.0,0.0,80,0.00,,,0.00,WUHU216HW,2013-02-04 12:58:00,
2013-02-04 08:01:00,45.5,39.7,30.31,NNE,23,0.0,0.0,80,0.00,,,0.00,WUHU216HW,2013-02-04 13:01:00,
2013-02-04 08:02:00,45.6,39.9,30.31,NNE,23,0.0,0.0,80,0.00,,,0.00,WUHU216HW,2013-02-04 13:02:00,
2013-02-04 08:03:00,45.6,39.9,30.31,NNE,23,0.0,0.0,80,0.00,,,0.00,WUHU216HW,2013-02-04 13:03:00,
2013-02-04 08:05:00,45.6,39.9,30.31,NNE,23,0.0,0.0,80,0.00,,,0.00,WUHU216HW,2013-02-04 13:05:00,
2013-02-04 08:08:00,45.6,39.9,30.31,NNE,23,0.0,0.0,80,0.00,,,0.00,WUHU216HW,2013-02-04 13:08:00,
2013-02-04 08:09:00,45.6,39.9,30.31,NNE,23,0.0,0.0,80,0.00,,,0.00,WUHU216HW,2013-02-04 13:09:00,
2013-02-04 08:10:00,45.6,39.9,30.31,NNE,23,0.0,0.0,80,0.00,,,0.00,WUHU216HW,2013-02-04 13:10:00,
2013-02-04 08:13:00,45.8,40.1,30.31,NNE,23,0.0,0.0,80,0.00,,,0.00,WUHU216HW,2013-02-04 13:13:00,
2013-02-04 08:15:00,46.0,40.2,30.31,NNE,23,0.0,0.0,80,0.00,,,0.00,WUHU216HW,2013-02-04 13:15:00,
2013-02-04 08:16:00,46.0,40.2,30.31,NNE,23,0.0,0.0,80,0.00,,,0.00,WUHU216HW,2013-02-04 13:16:00,
2013-02-04 08:18:00,46.2,40.4,30.31,NNE,23,0.0,0.0,80,0.00,,,0.00,WUHU216HW,2013-02-04 13:18:00,
2013-02-04 08:19:00,46.2,40.4,30.31,NNE,23,0.0,0.0,80,0.00,,,0.00,WUHU216HW,2013-02-04 13:19:00,
2013-02-04 08:21:00,46.2,40.4,30.31,NNE,23,0.0,0.0,80,0.00,,,0.00,WUHU216HW,2013-02-04 13:21:00,
2013-02-04 08:22:00,46.2,40.4,30.31,NNE,23,0.0,0.0,80,0.00,,,0.00,WUHU216HW,2013-02-04 13:22:00,
2013-02-04 08:24:00,46.5,40.8,30.31,NNE,23,0.0,0.0,80,0.00,,,0.00,WUHU216HW,2013-02-04 13:24:00,
2013-02-04 08:26:00,46.5,41.2,30.31,ENE,68,1.3,1.3,81,0.00,,,0.00,WUHU216HW,2013-02-04 13:26:00,
2013-02-04 08:28:00,46.7,41.2,30.31,ENE,68,0.9,1.3,81,0.00,,,0.00,WUHU216HW,2013-02-04 13:28:00,
2013-02-04 08:29:00,46.9,41.4,30.31,East,90,0.0,1.3,81,0.00,,,0.00,WUHU216HW,2013-02-04 13:29:00,
2013-02-04 08:31:00,47.1,41.5,30.31,East,90,0.0,1.3,81,0.00,,,0.00,WUHU216HW,2013-02-04 13:31:00,
2013-02-04 08:33:00,47.3,41.7,30.31,NNE,23,2.0,2.0,81,0.00,,,0.00,WUHU216HW,2013-02-04 13:33:00,
2013-02-04 08:35:00,47.4,41.9,30.31,East,90,2.0,2.0,81,0.00,,,0.00,WUHU216HW,2013-02-04 13:35:00,
2013-02-04 08:36:00,47.4,41.9,30.31,East,90,2.0,2.0,81,0.00,,,0.00,WUHU216HW,2013-02-04 13:36:00,
2013-02-04 08:39:00,48.0,42.4,30.31,East,90,0.6,2.0,81,0.00,,,0.00,WUHU216HW,2013-02-04 13:39:00,
2013-02-04 08:40:00,48.2,42.5,30.31,East,90,0.0,2.0,81,0.00,,,0.00,WUHU216HW,2013-02-04 13:40:00,
2013-02-04 08:41:00,48.2,42.5,30.31,East,90,0.0,2.0,81,0.00,,,0.00,WUHU216HW,2013-02-04 13:41:00,
2013-02-04 08:42:00,48.2,42.7,30.31,East,90,0.0,2.0,81,0.00,,,0.00,WUHU216HW,2013-02-04 13:42:00,
2013-02-04 08:45:00,48.7,43.1,30.31,East,90,0.0,1.7,81,0.00,,,0.00,WUHU216HW,2013-02-04 13:45:00,
2013-02-04 08:46:00,48.7,43.1,30.31,East,90,0.0,1.7,81,0.00,,,0.00,WUHU216HW,2013-02-04 13:46:00,
2013-02-04 08:47:00,48.9,43.1,30.31,East,90,0.0,1.7,81,0.00,,,0.00,WUHU216HW,2013-02-04 13:47:00,
2013-02-04 08:51:00,49.2,43.6,30.31,NE,45,0.0,1.7,81,0.00,,,0.00,WUHU216HW,2013-02-04 13:51:00,
2013-02-04 08:52:00,49.4,43.8,30.31,NNE,23,2.9,2.9,81,0.00,,,0.00,WUHU216HW,2013-02-04 13:52:00,
2013-02-04 08:56:00,49.8,44.4,30.32,NNE,23,2.2,3.3,82,0.00,,,0.00,WUHU216HW,2013-02-04 13:56:00,
2013-02-04 08:58:00,50.0,44.6,30.32,NNE,23,0.0,3.3,82,0.00,,,0.00,WUHU216HW,2013-02-04 13:58:00,
2013-02-04 09:01:00,50.5,44.9,30.32,NE,45,0.6,3.3,81,0.00,,,0.00,WUHU216HW,2013-02-04 14:01:00,
2013-02-04 09:02:00,50.5,44.9,30.32,NE,45,0.6,3.3,81,0.00,,,0.00,WUHU216HW,2013-02-04 14:02:00,
2013-02-04 09:03:00,50.7,45.0,30.32,NE,45,0.0,3.3,81,0.00,,,0.00,WUHU216HW,2013-02-04 14:03:00,
2013-02-04 09:04:00,50.7,45.0,30.32,NE,45,0.0,2.6,81,0.00,,,0.00,WUHU216HW,2013-02-04 14:04:00,
2013-02-04 09:06:00,51.0,45.4,30.32,NE,45,1.7,2.6,81,0.00,,,0.00,WUHU216HW,2013-02-04 14:06:00,
2013-02-04 09:08:00,51.2,45.6,30.32,ESE,113,1.3,2.6,81,0.00,,,0.00,WUHU216HW,2013-02-04 14:08:00,
2013-02-04 09:09:00,51.4,45.8,30.32,ESE,113,1.3,2.6,81,0.00,,,0.00,WUHU216HW,2013-02-04 14:09:00,
2013-02-04 09:10:00,51.4,45.8,30.32,ESE,113,0.0,1.7,81,0.00,,,0.00,WUHU216HW,2013-02-04 14:10:00,
2013-02-04 09:12:00,51.6,45.9,30.32,ESE,113,1.5,1.7,81,0.00,,,0.00,WUHU216HW,2013-02-04 14:12:00,
2013-02-04 09:13:00,51.8,46.1,30.32,ENE,68,2.2,2.2,81,0.00,,,0.00,WUHU216HW,2013-02-04 14:13:00,
2013-02-04 09:14:00,51.8,46.1,30.32,ENE,68,2.2,2.2,81,0.00,,,0.00,WUHU216HW,2013-02-04 14:14:00,
2013-02-04 09:16:00,52.3,46.4,30.32,ENE,77,1.8,2.2,80,0.00,,,0.00,WUHU216HW,2013-02-04 14:16:00,
2013-02-04 09:18:00,52.3,46.4,30.32,North,0,1.7,2.2,80,0.00,,,0.00,WUHU216HW,2013-02-04 14:18:00,
2013-02-04 09:20:00,52.5,46.5,30.32,East,90,2.4,2.4,80,0.00,,,0.00,WUHU216HW,2013-02-04 14:20:00,
2013-02-04 09:21:00,52.8,46.9,30.32,East,86,1.6,2.6,80,0.00,,,0.00,WUHU216HW,2013-02-04 14:21:00,
2013-02-04 09:23:00,52.8,46.9,30.32,ENE,68,0.6,2.6,80,0.00,,,0.00,WUHU216HW,2013-02-04 14:23:00,
2013-02-04 09:24:00,53.2,47.3,30.32,East,90,2.0,2.6,80,0.00,,,0.00,WUHU216HW,2013-02-04 14:24:00,
2013-02-04 09:25:00,53.2,47.3,30.32,East,90,1.4,2.6,80,0.00,,,0.00,WUHU216HW,2013-02-04 14:25:00,
2013-02-04 09:27:00,53.4,47.1,30.32,NNE,23,4.2,4.2,79,0.00,,,0.00,WUHU216HW,2013-02-04 14:27:00,
2013-02-04 09:29:00,53.7,47.4,30.32,NE,42,3.6,4.9,79,0.00,,,0.00,WUHU216HW,2013-02-04 14:29:00,
2013-02-04 09:31:00,54.1,47.6,30.32,ESE,113,0.6,4.9,79,0.00,,,0.00,WUHU216HW,2013-02-04 14:31:00,
2013-02-04 09:33:00,54.1,47.7,30.32,ESE,113,0.6,4.9,79,0.00,,,0.00,WUHU216HW,2013-02-04 14:33:00,
2013-02-04 09:34:00,54.3,47.9,30.32,ESE,113,0.6,4.9,79,0.00,,,0.00,WUHU216HW,2013-02-04 14:34:00,
2013-02-04 09:35:00,54.3,47.9,30.32,ESE,113,0.6,4.9,79,0.00,,,0.00,WUHU216HW,2013-02-04 14:35:00,
2013-02-04 09:37:00,54.5,47.7,30.32,ESE,113,0.8,4.9,78,0.00,,,0.00,WUHU216HW,2013-02-04 14:37:00,
2013-02-04 09:39:00,54.6,47.9,30.32,ENE,68,2.2,2.2,78,0.00,,,0.00,WUHU216HW,2013-02-04 14:39:00,
2013-02-04 09:40:00,54.6,47.9,30.32,ENE,68,2.2,2.2,78,0.00,,,0.00,WUHU216HW,2013-02-04 14:40:00,
2013-02-04 09:43:00,55.0,48.2,30.32,East,90,4.0,4.0,78,0.00,,,0.00,WUHU216HW,2013-02-04 14:43:00,
2013-02-04 09:45:00,55.2,48.4,30.32,ENE,68,1.7,4.0,77,0.00,,,0.00,WUHU216HW,2013-02-04 14:45:00,
2013-02-04 09:47:00,55.2,48.0,30.32,East,90,1.5,4.0,77,0.00,,,0.00,WUHU216HW,2013-02-04 14:47:00,
2013-02-04 09:48:00,55.4,48.2,30.32,East,90,1.5,4.0,77,0.00,,,0.00,WUHU216HW,2013-02-04 14:48:00,
2013-02-04 09:50:00,55.5,48.5,30.31,East,88,1.2,4.0,77,0.00,,,0.00,WUHU216HW,2013-02-04 14:50:00,
2013-02-04 09:52:00,55.7,48.7,30.32,ESE,123,2.7,3.8,77,0.00,,,0.00,WUHU216HW,2013-02-04 14:52:00,
2013-02-04 09:53:00,55.9,48.7,30.32,East,90,1.5,3.8,77,0.00,,,0.00,WUHU216HW,2013-02-04 14:53:00,
2013-02-04 09:56:00,56.1,48.7,30.31,ENE,68,0.6,4.6,76,0.00,,,0.00,WUHU216HW,2013-02-04 14:56:00,
2013-02-04 09:57:00,56.3,48.7,30.32,ENE,68,0.0,4.6,76,0.00,,,0.00,WUHU216HW,2013-02-04 14:57:00,
2013-02-04 09:58:00,56.4,48.9,30.31,ENE,68,0.0,4.6,76,0.00,,,0.00,WUHU216HW,2013-02-04 14:58:00,
2013-02-04 09:59:00,56.4,48.9,30.31,ENE,68,0.0,4.6,76,0.00,,,0.00,WUHU216HW,2013-02-04 14:59:00,
2013-02-04 10:03:00,56.8,49.2,30.32,ENE,68,1.7,4.6,76,0.00,,,0.00,WUHU216HW,2013-02-04 15:03:00,
2013-02-04 10:04:00,56.8,48.9,30.32,East,90,2.4,4.6,75,0.00,,,0.00,WUHU216HW,2013-02-04 15:04:00,
2013-02-04 10:05:00,57.0,49.1,30.32,NNE,23,3.5,3.5,75,0.00,,,0.00,WUHU216HW,2013-02-04 15:05:00,
2013-02-04 10:08:00,57.3,49.1,30.32,ENE,68,2.0,3.5,74,0.00,,,0.00,WUHU216HW,2013-02-04 15:08:00,
2013-02-04 10:09:00,57.3,49.1,30.31,ESE,113,4.4,4.4,74,0.00,,,0.00,WUHU216HW,2013-02-04 15:09:00,
2013-02-04 10:10:00,57.5,49.2,30.32,ESE,121,3.7,4.4,74,0.00,,,0.00,WUHU216HW,2013-02-04 15:10:00,
2013-02-04 10:13:00,57.9,48.9,30.31,East,90,4.1,7.3,72,0.00,,,0.00,WUHU216HW,2013-02-04 15:13:00,
2013-02-04 10:14:00,57.9,48.9,30.31,East,90,2.8,7.3,72,0.00,,,0.00,WUHU216HW,2013-02-04 15:14:00,
2013-02-04 10:16:00,58.1,48.7,30.32,NE,52,1.8,7.3,71,0.00,,,0.00,WUHU216HW,2013-02-04 15:16:00,
2013-02-04 10:19:00,58.6,48.7,30.32,NE,45,4.9,7.3,70,0.00,,,0.00,WUHU216HW,2013-02-04 15:19:00,
2013-02-04 10:21:00,58.6,48.5,30.31,NE,46,4.0,4.9,69,0.00,,,0.00,WUHU216HW,2013-02-04 15:21:00,
2013-02-04 10:24:00,58.8,48.2,30.32,ESE,113,5.1,5.1,68,0.00,,,0.00,WUHU216HW,2013-02-04 15:24:00,
2013-02-04 10:26:00,58.8,48.2,30.31,NE,45,0.6,5.1,68,0.00,,,0.00,WUHU216HW,2013-02-04 15:26:00,
2013-02-04 10:27:00,58.8,48.2,30.31,NE,45,0.6,5.1,68,0.00,,,0.00,WUHU216HW,2013-02-04 15:27:00,
2013-02-04 10:30:00,59.1,48.2,30.31,ENE,68,3.8,5.1,67,0.00,,,0.00,WUHU216HW,2013-02-04 15:30:00,
2013-02-04 10:31:00,59.3,48.2,30.31,ENE,68,3.3,5.1,66,0.00,,,0.00,WUHU216HW,2013-02-04 15:31:00,
2013-02-04 10:32:00,59.3,48.2,30.31,ENE,68,3.3,5.1,66,0.00,,,0.00,WUHU216HW,2013-02-04 15:32:00,
2013-02-04 10:35:00,59.5,47.7,30.31,ENE,73,1.9,6.2,65,0.00,,,0.00,WUHU216HW,2013-02-04 15:35:00,
2013-02-04 10:37:00,59.9,48.1,30.31,NE,55,4.1,6.2,65,0.00,,,0.00,WUHU216HW,2013-02-04 15:37:00,
2013-02-04 10:38:00,59.9,48.1,30.31,NE,51,2.8,6.2,65,0.00,,,0.00,WUHU216HW,2013-02-04 15:38:00,
2013-02-04 10:40:00,60.0,48.2,30.30,ENE,68,6.4,6.4,65,0.00,,,0.00,WUHU216HW,2013-02-04 15:40:00,
2013-02-04 10:42:00,60.2,48.0,30.31,NNE,23,3.1,6.4,64,0.00,,,0.00,WUHU216HW,2013-02-04 15:42:00,
2013-02-04 10:43:00,60.4,48.2,30.31,East,90,1.1,6.4,64,0.00,,,0.00,WUHU216HW,2013-02-04 15:43:00,
2013-02-04 10:45:00,60.4,47.8,30.31,South,180,4.9,6.4,63,0.00,,,0.00,WUHU216HW,2013-02-04 15:45:00,
2013-02-04 10:47:00,60.6,48.0,30.31,SE,135,6.9,6.9,63,0.00,,,0.00,WUHU216HW,2013-02-04 15:47:00,
2013-02-04 10:48:00,60.6,48.0,30.31,SE,135,4.6,6.9,63,0.00,,,0.00,WUHU216HW,2013-02-04 15:48:00,
2013-02-04 10:50:00,60.6,48.1,30.31,SSE,158,4.9,6.9,63,0.00,,,0.00,WUHU216HW,2013-02-04 15:50:00,
2013-02-04 10:52:00,60.9,47.9,30.31,ESE,113,4.9,6.9,62,0.00,,,0.00,WUHU216HW,2013-02-04 15:52:00,
2013-02-04 10:54:00,60.9,47.5,30.30,ENE,68,2.2,6.9,62,0.00,,,0.00,WUHU216HW,2013-02-04 15:54:00,
2013-02-04 10:55:00,60.9,47.5,30.30,ENE,68,2.2,6.9,62,0.00,,,0.00,WUHU216HW,2013-02-04 15:55:00,
2013-02-04 10:58:00,61.1,47.6,30.31,ENE,68,4.9,4.9,61,0.00,,,0.00,WUHU216HW,2013-02-04 15:58:00,
2013-02-04 10:59:00,61.1,47.2,30.31,SSE,158,6.7,6.7,60,0.00,,,0.00,WUHU216HW,2013-02-04 15:59:00,
2013-02-04 11:00:00,61.1,47.2,30.31,SSE,158,6.7,6.7,60,0.00,,,0.00,WUHU216HW,2013-02-04 16:00:00,
2013-02-04 11:01:00,61.3,47.8,30.31,SSE,149,5.3,6.7,61,0.00,,,0.00,WUHU216HW,2013-02-04 16:01:00,
2013-02-04 11:04:00,61.3,47.4,30.31,NE,53,3.9,6.7,60,0.00,,,0.00,WUHU216HW,2013-02-04 16:04:00,
2013-02-04 11:05:00,61.3,47.4,30.30,ESE,113,2.9,6.7,60,0.00,,,0.00,WUHU216HW,2013-02-04 16:05:00,
2013-02-04 11:06:00,61.5,47.1,30.31,SSE,158,2.6,6.7,59,0.00,,,0.00,WUHU216HW,2013-02-04 16:06:00,
2013-02-04 11:07:00,61.5,47.1,30.31,ENE,68,5.3,6.7,59,0.00,,,0.00,WUHU216HW,2013-02-04 16:07:00,
2013-02-04 11:09:00,61.5,46.6,30.30,NE,48,5.3,9.1,58,0.00,,,0.00,WUHU216HW,2013-02-04 16:09:00,
2013-02-04 11:10:00,61.5,46.6,30.30,ENE,68,3.1,9.1,58,0.00,,,0.00,WUHU216HW,2013-02-04 16:10:00,
2013-02-04 11:11:00,61.7,46.7,30.30,ESE,103,3.8,9.1,58,0.00,,,0.00,WUHU216HW,2013-02-04 16:11:00,
2013-02-04 11:13:00,61.8,46.9,30.30,East,90,3.1,9.1,58,0.00,,,0.00,WUHU216HW,2013-02-04 16:13:00,
2013-02-04 11:14:00,61.8,46.4,30.30,SSE,150,3.1,9.1,57,0.00,,,0.00,WUHU216HW,2013-02-04 16:14:00,
2013-02-04 11:15:00,61.8,46.4,30.30,ESE,119,1.8,9.1,57,0.00,,,0.00,WUHU216HW,2013-02-04 16:15:00,
2013-02-04 11:16:00,61.8,46.6,30.30,ESE,113,2.9,9.1,57,0.00,,,0.00,WUHU216HW,2013-02-04 16:16:00,
2013-02-04 11:18:00,62.0,46.6,30.29,East,91,2.2,4.4,57,0.00,,,0.00,WUHU216HW,2013-02-04 16:18:00,
2013-02-04 11:20:00,62.2,46.7,30.29,NE,45,0.0,4.0,57,0.00,,,0.00,WUHU216HW,2013-02-04 16:20:00,
2013-02-04 11:21:00,62.2,46.7,30.29,NE,45,0.0,4.0,57,0.00,,,0.00,WUHU216HW,2013-02-04 16:21:00,
2013-02-04 11:22:00,62.2,46.7,30.29,ESE,113,0.0,4.0,57,0.00,,,0.00,WUHU216HW,2013-02-04 16:22:00,
2013-02-04 11:23:00,62.2,46.7,30.29,South,180,2.6,4.0,57,0.00,,,0.00,WUHU216HW,2013-02-04 16:23:00,
2013-02-04 11:26:00,62.4,46.9,30.29,SE,135,3.5,3.5,57,0.00,,,0.00,WUHU216HW,2013-02-04 16:26:00,
2013-02-04 11:27:00,62.4,46.4,30.29,SSW,203,2.0,3.5,56,0.00,,,0.00,WUHU216HW,2013-02-04 16:27:00,
2013-02-04 11:28:00,62.4,46.4,30.29,SE,135,1.3,3.5,56,0.00,,,0.00,WUHU216HW,2013-02-04 16:28:00,
2013-02-04 11:31:00,62.4,46.4,30.29,ESE,113,4.4,4.4,56,0.00,,,0.00,WUHU216HW,2013-02-04 16:31:00,
2013-02-04 11:33:00,62.6,46.6,30.29,ENE,78,4.6,4.9,56,0.00,,,0.00,WUHU216HW,2013-02-04 16:33:00,
2013-02-04 11:34:00,62.7,46.1,30.29,East,97,3.1,4.9,55,0.00,,,0.00,WUHU216HW,2013-02-04 16:34:00,
2013-02-04 11:36:00,62.7,46.2,30.28,East,79,3.0,4.9,55,0.00,,,0.00,WUHU216HW,2013-02-04 16:36:00,
2013-02-04 11:37:00,62.9,45.9,30.29,East,90,2.4,4.9,54,0.00,,,0.00,WUHU216HW,2013-02-04 16:37:00,
2013-02-04 11:38:00,62.9,45.9,30.29,East,90,3.5,4.9,54,0.00,,,0.00,WUHU216HW,2013-02-04 16:38:00,
2013-02-04 11:39:00,63.1,45.9,30.29,SE,135,3.8,4.9,54,0.00,,,0.00,WUHU216HW,2013-02-04 16:39:00,
2013-02-04 11:42:00,63.1,46.1,30.29,ESE,116,2.8,4.4,54,0.00,,,0.00,WUHU216HW,2013-02-04 16:42:00,
2013-02-04 11:43:00,63.1,45.6,30.29,ENE,62,4.2,5.1,53,0.00,,,0.00,WUHU216HW,2013-02-04 16:43:00,
2013-02-04 11:44:00,63.1,45.6,30.28,ESE,105,2.5,5.1,53,0.00,,,0.00,WUHU216HW,2013-02-04 16:44:00,
2013-02-04 11:48:00,63.3,45.8,30.29,ENE,68,2.9,5.1,53,0.00,,,0.00,WUHU216HW,2013-02-04 16:48:00,
2013-02-04 11:49:00,63.3,45.8,30.29,ENE,68,2.9,5.1,53,0.00,,,0.00,WUHU216HW,2013-02-04 16:49:00,
2013-02-04 11:50:00,63.3,45.8,30.29,ESE,113,0.8,5.1,53,0.00,,,0.00,WUHU216HW,2013-02-04 16:50:00,
2013-02-04 11:54:00,63.6,46.1,30.29,SSE,158,4.7,5.3,53,0.00,,,0.00,WUHU216HW,2013-02-04 16:54:00,
2013-02-04 11:56:00,63.6,46.1,30.29,ESE,113,1.3,5.3,53,0.00,,,0.00,WUHU216HW,2013-02-04 16:56:00,
2013-02-04 11:59:00,64.0,45.9,30.29,NE,45,4.6,5.3,52,0.00,,,0.00,WUHU216HW,2013-02-04 16:59:00,
2013-02-04 12:00:00,64.0,45.9,30.29,NE,45,4.6,5.3,52,0.00,,,0.00,WUHU216HW,2013-02-04 17:00:00,
2013-02-04 12:01:00,64.0,45.9,30.29,NE,45,3.6,5.3,52,0.00,,,0.00,WUHU216HW,2013-02-04 17:01:00,
2013-02-04 12:02:00,64.0,45.9,30.29,NE,55,2.3,5.3,52,0.00,,,0.00,WUHU216HW,2013-02-04 17:02:00,
2013-02-04 12:04:00,64.2,45.6,30.29,ENE,68,2.4,7.1,51,0.00,,,0.00,WUHU216HW,2013-02-04 17:04:00,
2013-02-04 12:05:00,64.2,45.6,30.29,ENE,68,2.4,7.1,51,0.00,,,0.00,WUHU216HW,2013-02-04 17:05:00,
2013-02-04 12:06:00,64.2,45.1,30.28,ENE,68,3.3,7.1,50,0.00,,,0.00,WUHU216HW,2013-02-04 17:06:00,
2013-02-04 12:07:00,64.2,45.1,30.28,ENE,68,3.3,7.1,50,0.00,,,0.00,WUHU216HW,2013-02-04 17:07:00,
2013-02-04 12:10:00,64.2,45.1,30.28,SE,136,1.6,7.1,50,0.00,,,0.00,WUHU216HW,2013-02-04 17:10:00,
2013-02-04 12:11:00,64.5,44.9,30.28,SE,135,3.3,7.1,50,0.00,,,0.00,WUHU216HW,2013-02-04 17:11:00,
2013-02-04 12:12:00,64.5,45.5,30.28,SE,146,3.1,3.3,50,0.00,,,0.00,WUHU216HW,2013-02-04 17:12:00,
2013-02-04 12:15:00,64.5,45.5,30.28,SSW,203,4.4,4.4,50,0.00,,,0.00,WUHU216HW,2013-02-04 17:15:00,
2013-02-04 12:16:00,64.5,44.9,30.28,SSE,158,1.3,4.4,49,0.00,,,0.00,WUHU216HW,2013-02-04 17:16:00,
2013-02-04 12:17:00,64.5,44.9,30.28,SSE,158,1.3,4.4,49,0.00,,,0.00,WUHU216HW,2013-02-04 17:17:00,
2013-02-04 12:20:00,64.5,45.5,30.28,SSW,196,2.0,4.4,50,0.00,,,0.00,WUHU216HW,2013-02-04 17:20:00,
2013-02-04 12:22:00,64.7,45.6,30.27,SE,135,7.3,7.3,50,0.00,,,0.00,WUHU216HW,2013-02-04 17:22:00,
2013-02-04 12:23:00,64.7,45.6,30.27,SE,135,7.3,7.3,50,0.00,,,0.00,WUHU216HW,2013-02-04 17:23:00,
2013-02-04 12:25:00,64.7,45.0,30.27,South,180,2.2,7.3,49,0.00,,,0.00,WUHU216HW,2013-02-04 17:25:00,
2013-02-04 12:27:00,64.7,45.0,30.27,ENE,68,0.0,7.3,49,0.00,,,0.00,WUHU216HW,2013-02-04 17:27:00,
2013-02-04 12:28:00,64.7,45.0,30.27,ENE,68,0.0,7.3,49,0.00,,,0.00,WUHU216HW,2013-02-04 17:28:00,
2013-02-04 12:30:00,64.9,45.2,30.27,SE,135,4.9,7.3,48,0.00,,,0.00,WUHU216HW,2013-02-04 17:30:00,
2013-02-04 12:32:00,64.9,44.6,30.27,SW,215,2.7,4.9,48,0.00,,,0.00,WUHU216HW,2013-02-04 17:32:00,
2013-02-04 12:33:00,64.9,44.6,30.27,SW,215,2.7,4.9,48,0.00,,,0.00,WUHU216HW,2013-02-04 17:33:00,
2013-02-04 12:36:00,65.1,44.8,30.27,West,270,2.2,4.9,48,0.00,,,0.00,WUHU216HW,2013-02-04 17:36:00,
2013-02-04 12:37:00,65.1,44.8,30.27,SE,135,4.9,4.9,48,0.00,,,0.00,WUHU216HW,2013-02-04 17:37:00,
2013-02-04 12:38:00,65.1,44.2,30.27,SSE,167,4.0,4.9,47,0.00,,,0.00,WUHU216HW,2013-02-04 17:38:00,
2013-02-04 12:39:00,65.1,44.2,30.27,SSE,167,4.0,4.9,47,0.00,,,0.00,WUHU216HW,2013-02-04 17:39:00,
2013-02-04 12:41:00,65.1,44.2,30.27,SE,135,2.4,4.9,47,0.00,,,0.00,WUHU216HW,2013-02-04 17:41:00,
2013-02-04 12:42:00,65.1,44.2,30.26,WSW,248,2.2,4.9,47,0.00,,,0.00,WUHU216HW,2013-02-04 17:42:00,
2013-02-04 12:44:00,65.1,44.2,30.26,NW,315,3.1,4.9,47,0.00,,,0.00,WUHU216HW,2013-02-04 17:44:00,
2013-02-04 12:46:00,65.3,43.8,30.27,SE,135,3.1,4.9,46,0.00,,,0.00,WUHU216HW,2013-02-04 17:46:00,
2013-02-04 12:48:00,65.4,44.6,30.26,WSW,248,0.0,3.1,47,0.00,,,0.00,WUHU216HW,2013-02-04 17:48:00,
2013-02-04 12:49:00,65.4,44.6,30.26,WSW,248,0.0,3.1,47,0.00,,,0.00,WUHU216HW,2013-02-04 17:49:00,
2013-02-04 12:51:00,65.4,44.6,30.26,SSW,203,2.9,3.1,47,0.00,,,0.00,WUHU216HW,2013-02-04 17:51:00,
2013-02-04 12:54:00,65.6,44.7,30.26,SSW,203,3.3,3.3,47,0.00,,,0.00,WUHU216HW,2013-02-04 17:54:00,
2013-02-04 12:56:00,65.8,44.2,30.26,SSW,203,1.7,3.3,46,0.00,,,0.00,WUHU216HW,2013-02-04 17:56:00,
2013-02-04 12:58:00,65.8,44.3,30.26,SSW,203,1.3,3.3,46,0.00,,,0.00,WUHU216HW,2013-02-04 17:58:00,
2013-02-04 12:59:00,65.8,44.3,30.26,SSW,203,1.2,3.3,46,0.00,,,0.00,WUHU216HW,2013-02-04 17:59:00,
2013-02-04 13:00:00,65.8,44.3,30.26,South,180,2.0,3.3,46,0.00,,,0.00,WUHU216HW,2013-02-04 18:00:00,
2013-02-04 13:03:00,65.8,44.3,30.26,SSE,158,3.8,3.8,46,0.00,,,0.00,WUHU216HW,2013-02-04 18:03:00,
2013-02-04 13:05:00,65.8,44.3,30.26,NE,45,1.5,3.8,46,0.00,,,0.00,WUHU216HW,2013-02-04 18:05:00,
2013-02-04 13:07:00,65.8,44.3,30.26,SE,135,0.0,3.8,46,0.00,,,0.00,WUHU216HW,2013-02-04 18:07:00,
2013-02-04 13:08:00,65.8,44.3,30.26,WSW,248,2.9,3.8,46,0.00,,,0.00,WUHU216HW,2013-02-04 18:08:00,
2013-02-04 13:09:00,65.8,44.3,30.26,WSW,248,2.9,3.8,46,0.00,,,0.00,WUHU216HW,2013-02-04 18:09:00,
2013-02-04 13:11:00,66.0,43.9,30.26,SE,135,2.9,3.8,45,0.00,,,0.00,WUHU216HW,2013-02-04 18:11:00,
2013-02-04 13:12:00,66.0,43.9,30.25,SE,135,2.9,3.8,45,0.00,,,0.00,WUHU216HW,2013-02-04 18:12:00,
2013-02-04 13:14:00,66.0,43.9,30.25,SSE,158,4.6,4.6,45,0.00,,,0.00,WUHU216HW,2013-02-04 18:14:00,
2013-02-04 13:16:00,66.0,43.9,30.25,South,180,0.0,4.6,45,0.00,,,0.00,WUHU216HW,2013-02-04 18:16:00,
2013-02-04 13:18:00,66.0,43.9,30.24,ENE,68,2.4,4.6,45,0.00,,,0.00,WUHU216HW,2013-02-04 18:18:00,
2013-02-04 13:20:00,66.0,43.9,30.24,South,180,2.0,4.6,45,0.00,,,0.00,WUHU216HW,2013-02-04 18:20:00,
2013-02-04 13:21:00,66.0,43.9,30.24,ENE,68,1.3,4.6,45,0.00,,,0.00,WUHU216HW,2013-02-04 18:21:00,
2013-02-04 13:22:00,66.0,43.9,30.24,ENE,68,1.3,4.6,45,0.00,,,0.00,WUHU216HW,2013-02-04 18:22:00,
2013-02-04 13:24:00,66.2,43.5,30.24,SE,142,5.6,7.6,44,0.00,,,0.00,WUHU216HW,2013-02-04 18:24:00,
2013-02-04 13:27:00,66.2,43.5,30.24,WSW,248,3.5,7.6,44,0.00,,,0.00,WUHU216HW,2013-02-04 18:27:00,
2013-02-04 13:31:00,66.3,43.1,30.23,SW,225,0.0,7.6,43,0.00,,,0.00,WUHU216HW,2013-02-04 18:31:00,
2013-02-04 13:32:00,66.3,43.1,30.24,SSE,158,2.4,7.6,43,0.00,,,0.00,WUHU216HW,2013-02-04 18:32:00,
2013-02-04 13:33:00,66.3,43.1,30.24,SSE,158,2.4,7.6,43,0.00,,,0.00,WUHU216HW,2013-02-04 18:33:00,
2013-02-04 13:40:00,66.7,43.4,30.23,SW,225,0.0,4.4,43,0.00,,,0.00,WUHU216HW,2013-02-04 18:40:00,
2013-02-04 13:41:00,66.7,43.4,30.23,SW,225,0.0,4.4,43,0.00,,,0.00,WUHU216HW,2013-02-04 18:41:00,
2013-02-04 13:45:00,66.9,43.0,30.22,NE,45,2.9,6.0,42,0.00,,,0.00,WUHU216HW,2013-02-04 18:45:00,
2013-02-04 13:46:00,66.9,43.0,30.22,NE,45,2.9,6.0,42,0.00,,,0.00,WUHU216HW,2013-02-04 18:46:00,
2013-02-04 13:47:00,66.9,43.0,30.22,NE,45,2.9,6.0,42,0.00,,,0.00,WUHU216HW,2013-02-04 18:47:00,
2013-02-04 13:51:00,67.2,42.7,30.22,WSW,256,2.8,6.0,41,0.00,,,0.00,WUHU216HW,2013-02-04 18:51:00,
2013-02-04 13:52:00,67.2,42.7,30.21,NE,45,0.0,6.0,41,0.00,,,0.00,WUHU216HW,2013-02-04 18:52:00,
2013-02-04 13:56:00,67.4,43.5,30.21,SW,225,6.7,6.7,42,0.00,,,0.00,WUHU216HW,2013-02-04 18:56:00,
2013-02-04 13:57:00,67.4,42.9,30.21,SW,225,0.0,6.7,41,0.00,,,0.00,WUHU216HW,2013-02-04 18:57:00,
2013-02-04 13:59:00,67.6,43.0,30.21,SW,225,4.6,6.7,41,0.00,,,0.00,WUHU216HW,2013-02-04 18:59:00,
2013-02-04 14:01:00,67.6,43.0,30.21,WSW,248,3.8,6.7,42,0.00,,,0.00,WUHU216HW,2013-02-04 19:01:00,
2013-02-04 14:02:00,67.6,43.6,30.21,NNW,338,0.0,6.7,42,0.00,,,0.00,WUHU216HW,2013-02-04 19:02:00,
2013-02-04 14:04:00,67.8,43.2,30.21,NNW,338,1.5,4.6,41,0.00,,,0.00,WUHU216HW,2013-02-04 19:04:00,
2013-02-04 14:07:00,67.8,43.2,30.21,SW,225,2.4,4.6,41,0.00,,,0.00,WUHU216HW,2013-02-04 19:07:00,
2013-02-04 14:08:00,67.8,43.2,30.21,SW,225,2.4,4.6,41,0.00,,,0.00,WUHU216HW,2013-02-04 19:08:00,
2013-02-04 14:09:00,67.8,43.2,30.21,SSW,203,0.0,3.8,41,0.00,,,0.00,WUHU216HW,2013-02-04 19:09:00,
2013-02-04 14:10:00,67.8,43.2,30.21,SSW,203,0.0,3.8,41,0.00,,,0.00,WUHU216HW,2013-02-04 19:10:00,
2013-02-04 14:13:00,67.8,43.2,30.21,SW,225,3.8,3.8,41,0.00,,,0.00,WUHU216HW,2013-02-04 19:13:00,
2013-02-04 14:14:00,67.8,43.2,30.21,WSW,248,1.5,3.8,41,0.00,,,0.00,WUHU216HW,2013-02-04 19:14:00,
2013-02-04 14:15:00,67.8,43.2,30.21,SW,225,1.5,3.8,41,0.00,,,0.00,WUHU216HW,2013-02-04 19:15:00,
2013-02-04 14:18:00,68.1,43.5,30.21,SW,225,3.1,4.4,41,0.00,,,0.00,WUHU216HW,2013-02-04 19:18:00,
2013-02-04 14:19:00,68.1,43.5,30.21,SW,225,3.1,4.4,41,0.00,,,0.00,WUHU216HW,2013-02-04 19:19:00,
2013-02-04 14:21:00,68.1,42.9,30.21,West,270,2.2,4.4,40,0.00,,,0.00,WUHU216HW,2013-02-04 19:21:00,
2013-02-04 14:23:00,68.1,42.9,30.21,WNW,293,0.0,4.4,40,0.00,,,0.00,WUHU216HW,2013-02-04 19:23:00,
2013-02-04 14:24:00,68.1,42.9,30.20,West,270,2.9,4.4,40,0.00,,,0.00,WUHU216HW,2013-02-04 19:24:00,
2013-02-04 14:27:00,68.3,43.1,30.21,WSW,248,2.2,3.1,40,0.00,,,0.00,WUHU216HW,2013-02-04 19:27:00,
2013-02-04 14:29:00,68.3,42.3,30.21,WSW,248,2.2,3.1,39,0.00,,,0.00,WUHU216HW,2013-02-04 19:29:00,
2013-02-04 14:31:00,68.3,43.1,30.20,WSW,248,2.4,3.1,40,0.00,,,0.00,WUHU216HW,2013-02-04 19:31:00,
2013-02-04 14:32:00,68.3,41.6,30.21,ENE,68,1.1,3.1,38,0.00,,,0.00,WUHU216HW,2013-02-04 19:32:00,
2013-02-04 14:34:00,68.5,41.8,30.20,ENE,68,0.6,3.1,38,0.00,,,0.00,WUHU216HW,2013-02-04 19:34:00,
2013-02-04 14:35:00,68.5,41.8,30.20,West,270,3.1,3.1,38,0.00,,,0.00,WUHU216HW,2013-02-04 19:35:00,
2013-02-04 14:36:00,68.5,41.0,30.20,West,260,2.8,3.1,38,0.00,,,0.00,WUHU216HW,2013-02-04 19:36:00,
2013-02-04 14:37:00,68.5,41.0,30.20,WSW,248,2.4,3.1,37,0.00,,,0.00,WUHU216HW,2013-02-04 19:37:00,
2013-02-04 14:40:00,68.5,41.0,30.20,WSW,248,2.6,3.1,37,0.00,,,0.00,WUHU216HW,2013-02-04 19:40:00,
2013-02-04 14:41:00,68.5,41.0,30.20,WSW,248,1.2,3.1,37,0.00,,,0.00,WUHU216HW,2013-02-04 19:41:00,
2013-02-04 14:42:00,68.7,41.2,30.20,WSW,248,1.1,3.1,37,0.00,,,0.00,WUHU216HW,2013-02-04 19:42:00,
2013-02-04 14:43:00,68.7,41.2,30.20,WSW,248,1.1,3.1,37,0.00,,,0.00,WUHU216HW,2013-02-04 19:43:00,
2013-02-04 14:45:00,68.7,41.2,30.20,WSW,248,1.5,2.6,37,0.00,,,0.00,WUHU216HW,2013-02-04 19:45:00,
2013-02-04 14:47:00,68.7,41.2,30.20,WSW,248,0.0,2.6,37,0.00,,,0.00,WUHU216HW,2013-02-04 19:47:00,
2013-02-04 14:48:00,68.7,40.4,30.20,WSW,248,1.5,2.6,36,0.00,,,0.00,WUHU216HW,2013-02-04 19:48:00,
2013-02-04 14:51:00,68.7,40.4,30.20,WSW,248,3.1,3.1,36,0.00,,,0.00,WUHU216HW,2013-02-04 19:51:00,
2013-02-04 14:53:00,68.9,40.6,30.20,WSW,248,2.4,3.1,36,0.00,,,0.00,WUHU216HW,2013-02-04 19:53:00,
2013-02-04 14:56:00,69.0,39.9,30.21,WSW,248,2.8,6.4,35,0.00,,,0.00,WUHU216HW,2013-02-04 19:56:00,
2013-02-04 14:58:00,69.0,40.0,30.21,WSW,248,4.2,6.4,35,0.00,,,0.00,WUHU216HW,2013-02-04 19:58:00,
2013-02-04 14:59:00,69.0,40.0,30.21,WSW,248,4.2,6.4,35,0.00,,,0.00,WUHU216HW,2013-02-04 19:59:00,
2013-02-04 15:02:00,69.2,40.2,30.21,WSW,248,2.6,6.4,35,0.00,,,0.00,WUHU216HW,2013-02-04 20:02:00,
2013-02-04 15:04:00,69.4,41.1,30.20,WSW,248,2.6,4.2,36,0.00,,,0.00,WUHU216HW,2013-02-04 20:04:00,
2013-02-04 15:05:00,69.4,41.1,30.20,WSW,248,2.6,4.2,36,0.00,,,0.00,WUHU216HW,2013-02-04 20:05:00,
2013-02-04 15:06:00,69.4,41.1,30.20,WNW,293,3.1,4.2,36,0.00,,,0.00,WUHU216HW,2013-02-04 20:06:00,
2013-02-04 15:07:00,69.4,41.1,30.20,SW,225,3.1,4.2,36,0.00,,,0.00,WUHU216HW,2013-02-04 20:07:00,
2013-02-04 15:10:00,69.6,40.5,30.20,West,270,1.1,3.5,35,0.00,,,0.00,WUHU216HW,2013-02-04 20:10:00,
2013-02-04 15:11:00,69.6,40.5,30.20,WSW,248,1.7,3.5,35,0.00,,,0.00,WUHU216HW,2013-02-04 20:11:00,
2013-02-04 15:13:00,69.6,39.8,30.20,WNW,293,3.5,3.5,34,0.00,,,0.00,WUHU216HW,2013-02-04 20:13:00,
2013-02-04 15:15:00,69.6,39.8,30.20,WSW,248,4.2,4.2,34,0.00,,,0.00,WUHU216HW,2013-02-04 20:15:00,
2013-02-04 15:16:00,69.8,39.9,30.20,SW,225,7.1,7.1,34,0.00,,,0.00,WUHU216HW,2013-02-04 20:16:00,
2013-02-04 15:17:00,69.8,39.9,30.20,SW,233,5.6,7.1,34,0.00,,,0.00,WUHU216HW,2013-02-04 20:17:00,
2013-02-04 15:18:00,69.8,39.9,30.20,WSW,248,2.6,7.1,34,0.00,,,0.00,WUHU216HW,2013-02-04 20:18:00,
2013-02-04 15:20:00,69.9,40.8,30.20,West,270,0.0,7.1,35,0.00,,,0.00,WUHU216HW,2013-02-04 20:20:00,
2013-02-04 15:21:00,69.9,40.8,30.20,WSW,248,0.0,7.1,35,0.00,,,0.00,WUHU216HW,2013-02-04 20:21:00,
2013-02-04 15:23:00,69.9,40.8,30.20,WSW,248,2.9,7.1,35,0.00,,,0.00,WUHU216HW,2013-02-04 20:23:00,
2013-02-04 15:24:00,69.9,40.8,30.20,WSW,248,2.9,7.1,35,0.00,,,0.00,WUHU216HW,2013-02-04 20:24:00,
2013-02-04 15:26:00,69.9,40.8,30.20,WSW,248,3.5,4.4,35,0.00,,,0.00,WUHU216HW,2013-02-04 20:26:00,
2013-02-04 15:27:00,69.9,40.8,30.20,WSW,248,2.6,4.4,35,0.00,,,0.00,WUHU216HW,2013-02-04 20:27:00,
2013-02-04 15:29:00,69.9,40.8,30.20,WSW,248,2.0,4.4,35,0.00,,,0.00,WUHU216HW,2013-02-04 20:29:00,
2013-02-04 15:32:00,69.9,40.1,30.20,WSW,248,4.0,4.4,34,0.00,,,0.00,WUHU216HW,2013-02-04 20:32:00,
2013-02-04 15:33:00,70.1,39.5,30.20,WSW,248,6.0,6.0,33,0.00,,,0.00,WUHU216HW,2013-02-04 20:33:00,
2013-02-04 15:34:00,70.1,39.5,30.20,WSW,248,6.0,6.0,33,0.00,,,0.00,WUHU216HW,2013-02-04 20:34:00,
2013-02-04 15:38:00,70.3,40.4,30.20,WSW,248,1.3,6.0,34,0.00,,,0.00,WUHU216HW,2013-02-04 20:38:00,
2013-02-04 15:39:00,70.3,40.4,30.20,WSW,248,1.3,6.0,34,0.00,,,0.00,WUHU216HW,2013-02-04 20:39:00,
2013-02-04 15:43:00,70.3,41.2,30.20,WSW,248,3.1,3.8,35,0.00,,,0.00,WUHU216HW,2013-02-04 20:43:00,
2013-02-04 15:44:00,70.3,41.2,30.20,WSW,248,3.5,3.8,35,0.00,,,0.00,WUHU216HW,2013-02-04 20:44:00,
2013-02-04 15:45:00,70.3,41.2,30.20,WSW,248,2.3,3.8,35,0.00,,,0.00,WUHU216HW,2013-02-04 20:45:00,
2013-02-04 15:48:00,70.3,40.4,30.19,WSW,248,3.5,3.8,34,0.00,,,0.00,WUHU216HW,2013-02-04 20:48:00,
2013-02-04 15:49:00,70.3,40.4,30.20,WSW,248,3.3,3.8,34,0.00,,,0.00,WUHU216HW,2013-02-04 20:49:00,
2013-02-04 15:50:00,70.3,40.4,30.20,WSW,248,3.1,3.8,34,0.00,,,0.00,WUHU216HW,2013-02-04 20:50:00,
2013-02-04 15:54:00,70.3,40.4,30.20,WSW,248,1.1,3.5,34,0.00,,,0.00,WUHU216HW,2013-02-04 20:54:00,
2013-02-04 15:55:00,70.5,40.4,30.20,WSW,248,4.6,4.6,34,0.00,,,0.00,WUHU216HW,2013-02-04 20:55:00,
2013-02-04 15:56:00,70.5,40.4,30.20,WSW,248,4.6,4.6,34,0.00,,,0.00,WUHU216HW,2013-02-04 20:56:00,
2013-02-04 15:57:00,70.5,41.3,30.20,WSW,248,5.8,5.8,35,0.00,,,0.00,WUHU216HW,2013-02-04 20:57:00,
2013-02-04 15:59:00,70.5,41.3,30.20,WSW,255,4.4,5.8,35,0.00,,,0.00,WUHU216HW,2013-02-04 20:59:00,
2013-02-04 16:01:00,70.5,42.1,30.20,WSW,248,1.5,5.8,36,0.00,,,0.00,WUHU216HW,2013-02-04 21:01:00,
2013-02-04 16:03:00,70.5,42.8,30.20,WSW,248,1.3,5.8,37,0.00,,,0.00,WUHU216HW,2013-02-04 21:03:00,
2013-02-04 16:04:00,70.5,42.8,30.20,WSW,248,3.8,5.8,37,0.00,,,0.00,WUHU216HW,2013-02-04 21:04:00,
2013-02-04 16:05:00,70.5,42.8,30.20,WSW,248,3.3,5.8,37,0.00,,,0.00,WUHU216HW,2013-02-04 21:05:00,
2013-02-04 16:07:00,70.3,42.6,30.20,WSW,248,1.7,4.2,37,0.00,,,0.00,WUHU216HW,2013-02-04 21:07:00,
2013-02-04 16:08:00,70.5,42.8,30.20,WSW,248,1.7,4.2,37,0.00,,,0.00,WUHU216HW,2013-02-04 21:08:00,
2013-02-04 16:10:00,70.5,42.1,30.20,WSW,248,1.1,4.2,36,0.00,,,0.00,WUHU216HW,2013-02-04 21:10:00,
2013-02-04 16:12:00,70.5,42.8,30.20,West,270,0.0,4.2,37,0.00,,,0.00,WUHU216HW,2013-02-04 21:12:00,
2013-02-04 16:14:00,70.3,42.6,30.20,WSW,248,2.0,2.0,36,0.00,,,0.00,WUHU216HW,2013-02-04 21:14:00,
2013-02-04 16:15:00,70.3,41.9,30.20,WSW,248,2.0,2.0,36,0.00,,,0.00,WUHU216HW,2013-02-04 21:15:00,
2013-02-04 16:16:00,70.3,41.9,30.20,WSW,248,2.0,2.0,36,0.00,,,0.00,WUHU216HW,2013-02-04 21:16:00,
2013-02-04 16:17:00,70.3,41.2,30.19,WSW,248,0.0,2.0,35,0.00,,,0.00,WUHU216HW,2013-02-04 21:17:00,
2013-02-04 16:21:00,70.3,41.2,30.19,WSW,248,0.0,2.0,35,0.00,,,0.00,WUHU216HW,2013-02-04 21:21:00,
2013-02-04 16:22:00,70.3,41.2,30.20,WSW,248,0.0,2.0,35,0.00,,,0.00,WUHU216HW,2013-02-04 21:22:00,
2013-02-04 16:23:00,70.3,41.2,30.20,WSW,248,1.5,2.0,35,0.00,,,0.00,WUHU216HW,2013-02-04 21:23:00,
2013-02-04 16:27:00,70.3,41.2,30.19,WSW,248,3.3,3.3,35,0.00,,,0.00,WUHU216HW,2013-02-04 21:27:00,
2013-02-04 16:29:00,70.3,41.2,30.20,WSW,248,3.3,3.3,35,0.00,,,0.00,WUHU216HW,2013-02-04 21:29:00,
2013-02-04 16:32:00,70.1,41.7,30.20,WSW,248,1.7,3.3,35,0.00,,,0.00,WUHU216HW,2013-02-04 21:32:00,
2013-02-04 16:33:00,70.1,41.7,30.20,WSW,248,1.7,3.3,35,0.00,,,0.00,WUHU216HW,2013-02-04 21:33:00,
2013-02-04 16:35:00,70.1,41.0,30.20,WSW,248,2.2,3.3,35,0.00,,,0.00,WUHU216HW,2013-02-04 21:35:00,
2013-02-04 16:38:00,69.9,40.8,30.20,WSW,248,0.6,3.3,35,0.00,,,0.00,WUHU216HW,2013-02-04 21:38:00,
2013-02-04 16:39:00,69.9,40.8,30.20,WSW,248,0.6,3.3,34,0.00,,,0.00,WUHU216HW,2013-02-04 21:39:00,
2013-02-04 16:40:00,69.9,40.1,30.20,WSW,248,0.4,3.3,34,0.00,,,0.00,WUHU216HW,2013-02-04 21:40:00,
2013-02-04 16:43:00,69.9,39.4,30.20,WSW,248,0.0,14.0,33,0.00,,,0.00,WUHU216HW,2013-02-04 21:43:00,
2013-02-04 16:44:00,69.9,39.4,30.20,WSW,248,0.0,14.0,33,0.00,,,0.00,WUHU216HW,2013-02-04 21:44:00,
2013-02-04 16:45:00,69.9,39.4,30.20,WSW,248,0.0,14.0,33,0.00,,,0.00,WUHU216HW,2013-02-04 21:45:00,
2013-02-04 16:46:00,69.9,38.6,30.19,WSW,248,0.0,14.0,32,0.00,,,0.00,WUHU216HW,2013-02-04 21:46:00,
2013-02-04 16:48:00,69.9,39.4,30.20,WSW,248,0.0,14.0,33,0.00,,,0.00,WUHU216HW,2013-02-04 21:48:00,
2013-02-04 16:49:00,69.9,39.4,30.19,WSW,248,2.6,14.0,33,0.00,,,0.00,WUHU216HW,2013-02-04 21:49:00,
2013-02-04 16:50:00,69.9,39.4,30.19,WSW,248,2.6,14.0,33,0.00,,,0.00,WUHU216HW,2013-02-04 21:50:00,
2013-02-04 16:52:00,69.9,40.1,30.19,WSW,248,0.0,2.6,34,0.00,,,0.00,WUHU216HW,2013-02-04 21:52:00,
2013-02-04 16:54:00,69.9,40.1,30.19,WSW,248,0.0,2.6,34,0.00,,,0.00,WUHU216HW,2013-02-04 21:54:00,
2013-02-04 16:55:00,69.9,40.1,30.19,WSW,248,0.0,2.6,34,0.00,,,0.00,WUHU216HW,2013-02-04 21:55:00,
2013-02-04 16:58:00,69.9,39.4,30.20,WSW,248,1.3,2.6,33,0.00,,,0.00,WUHU216HW,2013-02-04 21:58:00,
2013-02-04 17:00:00,69.9,39.4,30.20,SSW,203,0.0,1.3,33,0.00,,,0.00,WUHU216HW,2013-02-04 22:00:00,
2013-02-04 17:01:00,69.9,39.4,30.20,WNW,293,3.5,3.5,33,0.00,,,0.00,WUHU216HW,2013-02-04 22:01:00,
2013-02-04 17:03:00,69.9,38.6,30.20,West,270,0.0,3.5,32,0.00,,,0.00,WUHU216HW,2013-02-04 22:03:00,
2013-02-04 17:05:00,69.9,38.6,30.20,West,270,0.4,3.5,32,0.00,,,0.00,WUHU216HW,2013-02-04 22:05:00,
2013-02-04 17:06:00,69.9,37.9,30.20,West,270,0.4,3.5,31,0.00,,,0.00,WUHU216HW,2013-02-04 22:06:00,
2013-02-04 17:09:00,69.9,37.9,30.20,West,270,1.5,3.5,31,0.00,,,0.00,WUHU216HW,2013-02-04 22:09:00,
2013-02-04 17:11:00,69.9,37.9,30.20,West,270,0.0,2.2,31,0.00,,,0.00,WUHU216HW,2013-02-04 22:11:00,
2013-02-04 17:12:00,69.9,37.9,30.20,West,270,0.0,2.2,31,0.00,,,0.00,WUHU216HW,2013-02-04 22:12:00,
2013-02-04 17:14:00,69.9,37.9,30.20,West,270,0.0,2.2,31,0.00,,,0.00,WUHU216HW,2013-02-04 22:14:00,
2013-02-04 17:16:00,69.9,37.9,30.20,WSW,248,0.6,2.2,31,0.00,,,0.00,WUHU216HW,2013-02-04 22:16:00,
2013-02-04 17:17:00,69.9,37.9,30.20,WSW,248,0.6,0.8,31,0.00,,,0.00,WUHU216HW,2013-02-04 22:17:00,
2013-02-04 17:18:00,69.9,37.9,30.20,WSW,248,0.0,0.6,31,0.00,,,0.00,WUHU216HW,2013-02-04 22:18:00,
2013-02-04 17:19:00,69.9,37.9,30.20,WSW,248,0.0,0.6,31,0.00,,,0.00,WUHU216HW,2013-02-04 22:19:00,
2013-02-04 17:21:00,69.9,37.2,30.20,West,270,0.0,0.6,31,0.00,,,0.00,WUHU216HW,2013-02-04 22:21:00,
2013-02-04 17:23:00,69.9,37.9,30.20,West,270,0.0,0.6,31,0.00,,,0.00,WUHU216HW,2013-02-04 22:23:00,
2013-02-04 17:25:00,69.9,37.9,30.20,West,270,0.0,0.6,31,0.00,,,0.00,WUHU216HW,2013-02-04 22:25:00,
2013-02-04 17:28:00,69.9,37.9,30.20,West,270,0.0,0.0,31,0.00,,,0.00,WUHU216HW,2013-02-04 22:28:00,
2013-02-04 17:29:00,69.9,37.9,30.20,West,270,0.6,0.6,31,0.00,,,0.00,WUHU216HW,2013-02-04 22:29:00,
2013-02-04 17:30:00,69.8,37.7,30.20,West,270,0.0,0.6,31,0.00,,,0.00,WUHU216HW,2013-02-04 22:30:00,
2013-02-04 17:33:00,69.6,37.6,30.21,West,270,0.0,0.6,31,0.00,,,0.00,WUHU216HW,2013-02-04 22:33:00,
2013-02-04 17:34:00,69.6,38.3,30.21,West,270,0.0,0.6,32,0.00,,,0.00,WUHU216HW,2013-02-04 22:34:00,
2013-02-04 17:36:00,69.6,38.3,30.21,West,270,0.0,0.6,32,0.00,,,0.00,WUHU216HW,2013-02-04 22:36:00,
2013-02-04 17:38:00,69.6,38.3,30.21,West,270,0.0,0.0,32,0.00,,,0.00,WUHU216HW,2013-02-04 22:38:00,
2013-02-04 17:40:00,69.4,38.1,30.21,West,270,0.0,0.0,32,0.00,,,0.00,WUHU216HW,2013-02-04 22:40:00,
2013-02-04 17:41:00,69.4,38.1,30.21,West,270,0.0,0.0,32,0.00,,,0.00,WUHU216HW,2013-02-04 22:41:00,
2013-02-04 17:43:00,69.4,38.1,30.21,West,270,0.0,0.0,32,0.00,,,0.00,WUHU216HW,2013-02-04 22:43:00,
2013-02-04 17:44:00,69.2,38.0,30.21,West,270,0.0,0.0,32,0.00,,,0.00,WUHU216HW,2013-02-04 22:44:00,
2013-02-04 17:45:00,69.0,37.8,30.21,West,270,0.0,0.0,32,0.00,,,0.00,WUHU216HW,2013-02-04 22:45:00,
2013-02-04 17:46:00,69.0,37.8,30.21,West,270,0.0,0.0,32,0.00,,,0.00,WUHU216HW,2013-02-04 22:46:00,
2013-02-04 17:49:00,68.9,38.4,30.21,WNW,293,0.0,0.0,32,0.00,,,0.00,WUHU216HW,2013-02-04 22:49:00,
2013-02-04 17:50:00,68.9,38.4,30.21,WNW,293,0.0,0.0,32,0.00,,,0.00,WUHU216HW,2013-02-04 22:50:00,
2013-02-04 17:52:00,68.7,39.0,30.21,WNW,293,0.0,0.0,34,0.00,,,0.00,WUHU216HW,2013-02-04 22:52:00,
2013-02-04 17:55:00,68.7,39.0,30.21,WNW,293,0.0,0.0,34,0.00,,,0.00,WUHU216HW,2013-02-04 22:55:00,
2013-02-04 17:56:00,68.5,39.5,30.21,WNW,293,0.0,0.0,35,0.00,,,0.00,WUHU216HW,2013-02-04 22:56:00,
2013-02-04 17:58:00,68.5,40.3,30.21,WNW,293,0.0,0.0,36,0.00,,,0.00,WUHU216HW,2013-02-04 22:58:00,
2013-02-04 18:00:00,68.1,40.9,30.21,WNW,293,0.0,0.0,37,0.00,,,0.00,WUHU216HW,2013-02-04 23:00:00,
2013-02-04 18:01:00,68.1,40.7,30.21,WNW,293,0.0,0.0,37,0.00,,,0.00,WUHU216HW,2013-02-04 23:01:00,
2013-02-04 18:03:00,68.1,41.4,30.21,WNW,293,0.0,0.0,38,0.00,,,0.00,WUHU216HW,2013-02-04 23:03:00,
2013-02-04 18:05:00,67.8,41.9,30.21,WNW,293,0.0,0.0,39,0.00,,,0.00,WUHU216HW,2013-02-04 23:05:00,
2013-02-04 18:06:00,67.8,41.9,30.21,WNW,293,0.0,0.0,39,0.00,,,0.00,WUHU216HW,2013-02-04 23:06:00,
2013-02-04 18:09:00,67.8,41.7,30.21,West,270,0.0,0.0,39,0.00,,,0.00,WUHU216HW,2013-02-04 23:09:00,
2013-02-04 18:10:00,67.6,43.0,30.21,West,270,0.0,0.0,41,0.00,,,0.00,WUHU216HW,2013-02-04 23:10:00,
2013-02-04 18:12:00,67.6,43.0,30.21,West,270,0.0,0.0,41,0.00,,,0.00,WUHU216HW,2013-02-04 23:12:00,
2013-02-04 18:14:00,67.2,42.7,30.21,West,270,0.0,0.0,41,0.00,,,0.00,WUHU216HW,2013-02-04 23:14:00,
2013-02-04 18:16:00,67.1,43.1,30.21,West,270,0.0,0.0,42,0.00,,,0.00,WUHU216HW,2013-02-04 23:16:00,
2013-02-04 18:17:00,66.9,43.0,30.21,West,270,0.0,0.0,42,0.00,,,0.00,WUHU216HW,2013-02-04 23:17:00,
2013-02-04 18:18:00,66.9,43.6,30.21,West,270,0.0,0.0,43,0.00,,,0.00,WUHU216HW,2013-02-04 23:18:00,
2013-02-04 18:19:00,66.9,43.6,30.21,West,270,0.0,0.0,43,0.00,,,0.00,WUHU216HW,2013-02-04 23:19:00,
2013-02-04 18:22:00,66.7,43.4,30.21,West,270,0.0,0.0,43,0.00,,,0.00,WUHU216HW,2013-02-04 23:22:00,
2013-02-04 18:24:00,66.3,43.1,30.21,West,270,0.0,0.0,43,0.00,,,0.00,WUHU216HW,2013-02-04 23:24:00,
2013-02-04 18:27:00,66.0,43.3,30.21,West,270,0.0,0.0,44,0.00,,,0.00,WUHU216HW,2013-02-04 23:27:00,
2013-02-04 18:28:00,66.0,43.3,30.21,West,270,0.0,0.0,44,0.00,,,0.00,WUHU216HW,2013-02-04 23:28:00,
2013-02-04 18:29:00,66.0,43.3,30.21,West,270,0.0,0.0,44,0.00,,,0.00,WUHU216HW,2013-02-04 23:29:00,
2013-02-04 18:33:00,65.6,43.6,30.22,West,270,0.0,0.0,45,0.00,,,0.00,WUHU216HW,2013-02-04 23:33:00,
2013-02-04 18:34:00,65.4,43.4,30.22,West,270,0.0,0.0,45,0.00,,,0.00,WUHU216HW,2013-02-04 23:34:00,
2013-02-04 18:38:00,65.3,43.8,30.21,West,270,0.0,0.0,46,0.00,,,0.00,WUHU216HW,2013-02-04 23:38:00,
2013-02-04 18:40:00,65.1,44.2,30.22,West,270,0.0,0.0,47,0.00,,,0.00,WUHU216HW,2013-02-04 23:40:00,
2013-02-04 18:44:00,64.9,44.1,30.22,West,270,0.0,0.0,47,0.00,,,0.00,WUHU216HW,2013-02-04 23:44:00,
2013-02-04 18:45:00,64.9,44.1,30.22,West,270,0.0,0.0,47,0.00,,,0.00,WUHU216HW,2013-02-04 23:45:00,
2013-02-04 18:46:00,64.9,44.6,30.22,West,270,0.0,0.0,48,0.00,,,0.00,WUHU216HW,2013-02-04 23:46:00,
2013-02-04 18:49:00,64.7,44.5,30.22,West,270,0.0,0.0,48,0.00,,,0.00,WUHU216HW,2013-02-04 23:49:00,
2013-02-04 18:50:00,64.5,44.3,30.22,West,270,0.0,0.0,48,0.00,,,0.00,WUHU216HW,2013-02-04 23:50:00,
2013-02-04 18:51:00,64.5,44.9,30.22,West,270,0.0,0.0,49,0.00,,,0.00,WUHU216HW,2013-02-04 23:51:00,
2013-02-04 18:54:00,64.2,44.5,30.22,West,270,0.0,0.0,49,0.00,,,0.00,WUHU216HW,2013-02-04 23:54:00,
2013-02-04 18:55:00,64.2,44.5,30.22,West,270,0.0,0.0,49,0.00,,,0.00,WUHU216HW,2013-02-04 23:55:00,
2013-02-04 18:56:00,64.2,44.5,30.22,West,270,0.0,0.0,49,0.00,,,0.00,WUHU216HW,2013-02-04 23:56:00,
2013-02-04 19:00:00,64.0,44.9,30.22,West,270,0.0,0.0,50,0.00,,,0.00,WUHU216HW,2013-02-05 00:00:00,
2013-02-04 19:01:00,64.0,44.9,30.22,West,270,0.0,0.0,50,0.00,,,0.00,WUHU216HW,2013-02-05 00:01:00,
2013-02-04 19:02:00,64.0,44.9,30.22,West,270,0.0,0.0,50,0.00,,,0.00,WUHU216HW,2013-02-05 00:02:00,
2013-02-04 19:05:00,63.6,45.1,30.22,West,270,0.0,0.0,51,0.00,,,0.00,WUHU216HW,2013-02-05 00:05:00,
2013-02-04 19:06:00,63.6,45.1,30.22,West,270,0.0,0.0,51,0.00,,,0.00,WUHU216HW,2013-02-05 00:06:00,
2013-02-04 19:07:00,63.6,45.1,30.22,West,270,0.0,0.0,51,0.00,,,0.00,WUHU216HW,2013-02-05 00:07:00,
2013-02-04 19:11:00,63.3,45.3,30.22,West,270,0.0,0.0,52,0.00,,,0.00,WUHU216HW,2013-02-05 00:11:00,
2013-02-04 19:12:00,63.3,45.3,30.22,West,270,0.0,0.0,52,0.00,,,0.00,WUHU216HW,2013-02-05 00:12:00,
2013-02-04 19:13:00,63.1,45.1,30.22,West,270,0.0,0.0,52,0.00,,,0.00,WUHU216HW,2013-02-05 00:13:00,
2013-02-04 19:16:00,62.9,45.4,30.22,West,270,0.0,0.0,53,0.00,,,0.00,WUHU216HW,2013-02-05 00:16:00,
2013-02-04 19:17:00,62.9,45.4,30.22,West,270,0.0,0.0,53,0.00,,,0.00,WUHU216HW,2013-02-05 00:17:00,
2013-02-04 19:18:00,62.7,45.3,30.22,West,270,0.0,0.0,53,0.00,,,0.00,WUHU216HW,2013-02-05 00:18:00,
2013-02-04 19:19:00,62.7,45.3,30.22,West,270,0.0,0.0,53,0.00,,,0.00,WUHU216HW,2013-02-05 00:19:00,
2013-02-04 19:21:00,62.6,45.1,30.22,West,270,0.0,0.0,53,0.00,,,0.00,WUHU216HW,2013-02-05 00:21:00,
2013-02-04 19:22:00,62.4,45.1,30.22,West,270,0.0,0.0,53,0.00,,,0.00,WUHU216HW,2013-02-05 00:22:00,
2013-02-04 19:24:00,62.4,44.9,30.22,West,270,0.0,0.0,53,0.00,,,0.00,WUHU216HW,2013-02-05 00:24:00,
2013-02-04 19:26:00,62.2,45.3,30.22,West,270,0.0,0.0,54,0.00,,,0.00,WUHU216HW,2013-02-05 00:26:00,
2013-02-04 19:27:00,62.2,45.3,30.22,West,270,0.0,0.0,54,0.00,,,0.00,WUHU216HW,2013-02-05 00:27:00,
2013-02-04 19:29:00,62.0,45.1,30.23,West,270,0.0,0.0,54,0.00,,,0.00,WUHU216HW,2013-02-05 00:29:00,
2013-02-04 19:30:00,61.8,44.9,30.23,West,270,0.0,0.0,54,0.00,,,0.00,WUHU216HW,2013-02-05 00:30:00,
2013-02-04 19:32:00,61.8,45.4,30.23,West,270,0.0,0.0,55,0.00,,,0.00,WUHU216HW,2013-02-05 00:32:00,
2013-02-04 19:33:00,61.8,45.4,30.23,West,270,0.0,0.0,55,0.00,,,0.00,WUHU216HW,2013-02-05 00:33:00,
2013-02-04 19:34:00,61.7,45.3,30.22,West,270,0.0,0.0,55,0.00,,,0.00,WUHU216HW,2013-02-05 00:34:00,
2013-02-04 19:35:00,61.5,45.1,30.23,West,270,0.0,0.0,55,0.00,,,0.00,WUHU216HW,2013-02-05 00:35:00,
2013-02-04 19:38:00,61.5,45.1,30.23,West,270,0.0,0.0,55,0.00,,,0.00,WUHU216HW,2013-02-05 00:38:00,
2013-02-04 19:40:00,61.3,45.4,30.23,West,270,0.0,0.0,56,0.00,,,0.00,WUHU216HW,2013-02-05 00:40:00,
2013-02-04 19:41:00,61.1,45.3,30.23,West,270,0.0,0.0,56,0.00,,,0.00,WUHU216HW,2013-02-05 00:41:00,
2013-02-04 19:43:00,61.1,45.3,30.23,West,270,0.0,0.0,56,0.00,,,0.00,WUHU216HW,2013-02-05 00:43:00,
2013-02-04 19:46:00,60.9,45.6,30.23,West,270,0.0,0.0,57,0.00,,,0.00,WUHU216HW,2013-02-05 00:46:00,
2013-02-04 19:48:00,60.6,45.4,30.23,West,270,0.0,0.0,57,0.00,,,0.00,WUHU216HW,2013-02-05 00:48:00,
2013-02-04 19:49:00,60.6,45.4,30.23,West,270,0.0,0.0,57,0.00,,,0.00,WUHU216HW,2013-02-05 00:49:00,
2013-02-04 19:51:00,60.6,45.7,30.23,West,270,0.0,0.0,58,0.00,,,0.00,WUHU216HW,2013-02-05 00:51:00,
2013-02-04 19:53:00,60.4,45.7,30.23,West,270,0.0,0.0,58,0.00,,,0.00,WUHU216HW,2013-02-05 00:53:00,
2013-02-04 19:56:00,60.4,45.6,30.23,West,270,0.0,0.0,58,0.00,,,0.00,WUHU216HW,2013-02-05 00:56:00,
2013-02-04 19:59:00,60.0,45.2,30.23,West,270,0.0,0.0,58,0.00,,,0.00,WUHU216HW,2013-02-05 00:59:00,
2013-02-04 20:01:00,60.0,45.7,30.23,West,270,0.0,0.0,59,0.00,,,0.00,WUHU216HW,2013-02-05 01:01:00,
2013-02-04 20:02:00,60.0,45.7,30.23,West,270,0.0,0.0,59,0.00,,,0.00,WUHU216HW,2013-02-05 01:02:00,
2013-02-04 20:03:00,59.9,45.5,30.23,West,270,0.0,0.0,59,0.00,,,0.00,WUHU216HW,2013-02-05 01:03:00,
2013-02-04 20:04:00,59.9,45.5,30.23,West,270,0.0,0.0,59,0.00,,,0.00,WUHU216HW,2013-02-05 01:04:00,
2013-02-04 20:07:00,59.7,45.3,30.23,West,270,0.0,0.0,59,0.00,,,0.00,WUHU216HW,2013-02-05 01:07:00,
2013-02-04 20:09:00,59.5,45.1,30.23,West,270,0.0,0.0,59,0.00,,,0.00,WUHU216HW,2013-02-05 01:09:00,
2013-02-04 20:10:00,59.5,45.1,30.23,West,270,0.0,0.0,59,0.00,,,0.00,WUHU216HW,2013-02-05 01:10:00,
2013-02-04 20:12:00,59.5,45.1,30.24,West,270,0.0,0.0,59,0.00,,,0.00,WUHU216HW,2013-02-05 01:12:00,
2013-02-04 20:13:00,59.5,45.1,30.24,West,270,0.0,0.0,59,0.00,,,0.00,WUHU216HW,2013-02-05 01:13:00,
2013-02-04 20:15:00,59.3,45.5,30.24,West,270,0.0,0.0,60,0.00,,,0.00,WUHU216HW,2013-02-05 01:15:00,
2013-02-04 20:17:00,59.1,45.3,30.24,West,270,0.0,0.0,60,0.00,,,0.00,WUHU216HW,2013-02-05 01:17:00,
2013-02-04 20:18:00,59.1,45.3,30.24,West,270,0.0,0.0,60,0.00,,,0.00,WUHU216HW,2013-02-05 01:18:00,
2013-02-04 20:20:00,58.8,44.9,30.24,West,270,0.0,0.0,60,0.00,,,0.00,WUHU216HW,2013-02-05 01:20:00,
2013-02-04 20:21:00,58.8,44.9,30.24,West,270,0.0,0.0,60,0.00,,,0.00,WUHU216HW,2013-02-05 01:21:00,
2013-02-04 20:23:00,58.8,44.9,30.24,West,270,0.0,0.0,60,0.00,,,0.00,WUHU216HW,2013-02-05 01:23:00,
2013-02-04 20:26:00,58.8,45.3,30.24,West,270,0.0,0.0,61,0.00,,,0.00,WUHU216HW,2013-02-05 01:26:00,
2013-02-04 20:28:00,58.8,45.3,30.24,West,270,0.0,0.0,61,0.00,,,0.00,WUHU216HW,2013-02-05 01:28:00,
2013-02-04 20:31:00,58.8,45.3,30.24,West,270,0.0,0.0,61,0.00,,,0.00,WUHU216HW,2013-02-05 01:31:00,
2013-02-04 20:32:00,58.8,45.3,30.24,West,270,0.0,0.0,61,0.00,,,0.00,WUHU216HW,2013-02-05 01:32:00,
2013-02-04 20:34:00,58.8,45.3,30.24,North,0,1.1,1.1,61,0.00,,,0.00,WUHU216HW,2013-02-05 01:34:00,
2013-02-04 20:37:00,58.6,45.2,30.24,North,0,0.0,1.1,61,0.00,,,0.00,WUHU216HW,2013-02-05 01:37:00,
2013-02-04 20:38:00,58.6,45.2,30.24,North,0,0.0,1.1,61,0.00,,,0.00,WUHU216HW,2013-02-05 01:38:00,
2013-02-04 20:39:00,58.6,45.6,30.24,North,0,0.0,1.1,62,0.00,,,0.00,WUHU216HW,2013-02-05 01:39:00,
2013-02-04 20:40:00,58.6,45.6,30.24,North,0,0.0,1.1,62,0.00,,,0.00,WUHU216HW,2013-02-05 01:40:00,
2013-02-04 20:43:00,58.4,45.4,30.24,North,0,0.0,0.0,62,0.00,,,0.00,WUHU216HW,2013-02-05 01:43:00,
2013-02-04 20:44:00,58.2,45.3,30.24,North,0,0.0,0.0,62,0.00,,,0.00,WUHU216HW,2013-02-05 01:44:00,
2013-02-04 20:46:00,58.2,45.3,30.24,North,0,0.0,0.0,62,0.00,,,0.00,WUHU216HW,2013-02-05 01:46:00,
2013-02-04 20:49:00,58.2,45.3,30.24,North,0,0.0,0.0,62,0.00,,,0.00,WUHU216HW,2013-02-05 01:49:00,
2013-02-04 20:51:00,58.2,45.3,30.24,North,0,0.0,0.0,62,0.00,,,0.00,WUHU216HW,2013-02-05 01:51:00,
2013-02-04 20:55:00,58.1,45.1,30.24,North,0,0.0,0.0,62,0.00,,,0.00,WUHU216HW,2013-02-05 01:55:00,
2013-02-04 20:56:00,58.1,45.5,30.24,North,0,0.0,0.0,63,0.00,,,0.00,WUHU216HW,2013-02-05 01:56:00,
2013-02-04 20:57:00,58.1,45.5,30.24,North,0,0.0,0.0,63,0.00,,,0.00,WUHU216HW,2013-02-05 01:57:00,
2013-02-04 21:01:00,57.9,45.3,30.24,North,0,0.0,0.0,63,0.00,,,0.00,WUHU216HW,2013-02-05 02:01:00,
2013-02-04 21:02:00,57.9,45.3,30.24,North,0,0.0,0.0,63,0.00,,,0.00,WUHU216HW,2013-02-05 02:02:00,
2013-02-04 21:07:00,57.7,45.1,30.24,North,0,0.0,0.0,63,0.00,,,0.00,WUHU216HW,2013-02-05 02:07:00,
2013-02-04 21:08:00,57.7,45.1,30.24,North,0,0.0,0.0,63,0.00,,,0.00,WUHU216HW,2013-02-05 02:08:00,
2013-02-04 21:13:00,57.5,45.4,30.24,North,0,0.0,0.0,64,0.00,,,0.00,WUHU216HW,2013-02-05 02:13:00,
2013-02-04 21:18:00,57.3,45.2,30.24,North,0,0.0,0.0,64,0.00,,,0.00,WUHU216HW,2013-02-05 02:18:00,
2013-02-04 21:19:00,57.3,45.2,30.24,North,0,0.0,0.0,64,0.00,,,0.00,WUHU216HW,2013-02-05 02:19:00,
2013-02-04 21:24:00,57.0,44.9,30.24,North,0,0.0,0.0,64,0.00,,,0.00,WUHU216HW,2013-02-05 02:24:00,
2013-02-04 21:29:00,57.0,45.3,30.24,North,0,0.0,0.0,65,0.00,,,0.00,WUHU216HW,2013-02-05 02:29:00,
2013-02-04 21:30:00,56.8,45.1,30.24,North,0,0.0,0.0,65,0.00,,,0.00,WUHU216HW,2013-02-05 02:30:00,
2013-02-04 21:34:00,56.8,45.5,30.24,North,0,0.0,0.0,66,0.00,,,0.00,WUHU216HW,2013-02-05 02:34:00,
2013-02-04 21:35:00,56.8,45.5,30.24,North,0,0.0,0.0,66,0.00,,,0.00,WUHU216HW,2013-02-05 02:35:00,
2013-02-04 21:40:00,56.4,44.8,30.24,ESE,113,0.0,0.0,65,0.00,,,0.00,WUHU216HW,2013-02-05 02:40:00,
2013-02-04 21:41:00,56.4,45.2,30.24,ESE,113,0.0,0.0,66,0.00,,,0.00,WUHU216HW,2013-02-05 02:41:00,
2013-02-04 21:45:00,56.3,45.0,30.23,ESE,113,0.0,0.0,66,0.00,,,0.00,WUHU216HW,2013-02-05 02:45:00,
2013-02-04 21:46:00,56.3,45.0,30.24,ESE,113,0.0,0.0,66,0.00,,,0.00,WUHU216HW,2013-02-05 02:46:00,
2013-02-04 21:48:00,56.3,44.8,30.24,ESE,113,0.0,0.0,66,0.00,,,0.00,WUHU216HW,2013-02-05 02:48:00,
2013-02-04 21:50:00,56.1,44.8,30.24,ESE,113,0.0,0.0,66,0.00,,,0.00,WUHU216HW,2013-02-05 02:50:00,
2013-02-04 21:51:00,56.1,44.8,30.24,ESE,113,0.0,0.0,66,0.00,,,0.00,WUHU216HW,2013-02-05 02:51:00,
2013-02-04 21:52:00,56.1,44.8,30.24,ESE,113,0.0,0.0,66,0.00,,,0.00,WUHU216HW,2013-02-05 02:52:00,
2013-02-04 21:53:00,56.1,44.8,30.24,ESE,113,0.0,0.0,66,0.00,,,0.00,WUHU216HW,2013-02-05 02:53:00,
2013-02-04 21:55:00,55.9,44.7,30.24,ESE,113,0.0,0.0,66,0.00,,,0.00,WUHU216HW,2013-02-05 02:55:00,
2013-02-04 21:56:00,55.9,44.7,30.24,ESE,113,0.0,0.0,66,0.00,,,0.00,WUHU216HW,2013-02-05 02:56:00,
2013-02-04 21:57:00,55.9,44.7,30.24,ESE,113,0.0,0.0,66,0.00,,,0.00,WUHU216HW,2013-02-05 02:57:00,
2013-02-04 21:59:00,55.9,44.7,30.24,ESE,113,0.0,0.0,66,0.00,,,0.00,WUHU216HW,2013-02-05 02:59:00,
2013-02-04 22:01:00,55.9,44.7,30.24,ESE,113,0.0,0.0,66,0.00,,,0.00,WUHU216HW,2013-02-05 03:01:00,
2013-02-04 22:03:00,55.7,44.9,30.24,ESE,113,0.0,0.0,67,0.00,,,0.00,WUHU216HW,2013-02-05 03:03:00,
2013-02-04 22:06:00,55.7,44.9,30.24,ESE,113,0.0,0.0,67,0.00,,,0.00,WUHU216HW,2013-02-05 03:06:00,
2013-02-04 22:07:00,55.7,44.9,30.24,ESE,113,0.0,0.0,67,0.00,,,0.00,WUHU216HW,2013-02-05 03:07:00,
2013-02-04 22:08:00,55.5,44.7,30.24,ESE,113,0.0,0.0,67,0.00,,,0.00,WUHU216HW,2013-02-05 03:08:00,
2013-02-04 22:11:00,55.5,44.7,30.24,ESE,113,0.0,0.0,67,0.00,,,0.00,WUHU216HW,2013-02-05 03:11:00,
2013-02-04 22:12:00,55.4,44.6,30.24,ESE,113,0.0,0.0,67,0.00,,,0.00,WUHU216HW,2013-02-05 03:12:00,
2013-02-04 22:14:00,55.4,44.6,30.24,ESE,113,0.0,0.0,67,0.00,,,0.00,WUHU216HW,2013-02-05 03:14:00,
2013-02-04 22:17:00,55.2,44.8,30.24,ESE,113,0.0,0.0,68,0.00,,,0.00,WUHU216HW,2013-02-05 03:17:00,
2013-02-04 22:18:00,55.2,44.8,30.24,ESE,113,0.0,0.0,68,0.00,,,0.00,WUHU216HW,2013-02-05 03:18:00,
2013-02-04 22:19:00,55.2,44.8,30.24,ESE,113,0.0,0.0,68,0.00,,,0.00,WUHU216HW,2013-02-05 03:19:00,
2013-02-04 22:22:00,55.2,44.8,30.25,ESE,113,0.0,0.0,68,0.00,,,0.00,WUHU216HW,2013-02-05 03:22:00,
2013-02-04 22:23:00,55.2,44.8,30.25,ESE,113,0.0,0.0,68,0.00,,,0.00,WUHU216HW,2013-02-05 03:23:00,
2013-02-04 22:24:00,55.2,44.8,30.25,ESE,113,0.0,0.0,68,0.00,,,0.00,WUHU216HW,2013-02-05 03:24:00,
2013-02-04 22:27:00,55.0,44.6,30.25,ESE,113,0.0,0.0,68,0.00,,,0.00,WUHU216HW,2013-02-05 03:27:00,
2013-02-04 22:28:00,55.0,45.0,30.25,ESE,113,0.0,0.0,68,0.00,,,0.00,WUHU216HW,2013-02-05 03:28:00,
2013-02-04 22:29:00,55.0,45.0,30.25,ESE,113,0.0,0.0,69,0.00,,,0.00,WUHU216HW,2013-02-05 03:29:00,
2013-02-04 22:30:00,55.0,45.0,30.25,ESE,113,0.0,0.0,69,0.00,,,0.00,WUHU216HW,2013-02-05 03:30:00,
2013-02-04 22:33:00,54.8,44.9,30.24,ESE,113,0.0,0.0,69,0.00,,,0.00,WUHU216HW,2013-02-05 03:33:00,
2013-02-04 22:35:00,54.6,44.7,30.24,ESE,113,0.0,0.0,69,0.00,,,0.00,WUHU216HW,2013-02-05 03:35:00,
2013-02-04 22:36:00,54.6,44.7,30.24,ESE,113,0.0,0.0,69,0.00,,,0.00,WUHU216HW,2013-02-05 03:36:00,
2013-02-04 22:39:00,54.6,44.7,30.24,ESE,113,0.0,0.0,69,0.00,,,0.00,WUHU216HW,2013-02-05 03:39:00,
2013-02-04 22:40:00,54.5,44.5,30.24,ESE,113,0.0,0.0,69,0.00,,,0.00,WUHU216HW,2013-02-05 03:40:00,
2013-02-04 22:41:00,54.5,44.5,30.25,ESE,113,0.0,0.0,69,0.00,,,0.00,WUHU216HW,2013-02-05 03:41:00,
2013-02-04 22:43:00,54.5,44.5,30.24,ESE,113,0.0,0.0,69,0.00,,,0.00,WUHU216HW,2013-02-05 03:43:00,
2013-02-04 22:44:00,54.5,44.5,30.25,ESE,113,0.0,0.0,69,0.00,,,0.00,WUHU216HW,2013-02-05 03:44:00,
2013-02-04 22:46:00,54.5,44.9,30.24,ESE,113,0.0,0.0,70,0.00,,,0.00,WUHU216HW,2013-02-05 03:46:00,
2013-02-04 22:48:00,54.3,44.7,30.25,ESE,113,0.0,0.0,70,0.00,,,0.00,WUHU216HW,2013-02-05 03:48:00,
2013-02-04 22:49:00,54.3,44.7,30.25,ESE,113,0.0,0.0,70,0.00,,,0.00,WUHU216HW,2013-02-05 03:49:00,
2013-02-04 22:52:00,54.3,44.7,30.25,ESE,113,0.0,0.0,70,0.00,,,0.00,WUHU216HW,2013-02-05 03:52:00,
2013-02-04 22:54:00,54.1,44.6,30.25,ESE,113,0.0,0.0,70,0.00,,,0.00,WUHU216HW,2013-02-05 03:54:00,
2013-02-04 22:56:00,54.1,44.6,30.25,ESE,113,0.0,0.0,70,0.00,,,0.00,WUHU216HW,2013-02-05 03:56:00,
2013-02-04 22:58:00,54.1,44.6,30.25,ESE,113,0.0,0.0,70,0.00,,,0.00,WUHU216HW,2013-02-05 03:58:00,
2013-02-04 22:59:00,54.1,44.6,30.24,ESE,113,0.0,0.0,70,0.00,,,0.00,WUHU216HW,2013-02-05 03:59:00,
2013-02-04 23:01:00,54.1,44.6,30.25,ESE,113,0.0,0.0,70,0.00,,,0.00,WUHU216HW,2013-02-05 04:01:00,
2013-02-04 23:03:00,53.9,44.9,30.25,ESE,113,0.0,0.0,71,0.00,,,0.00,WUHU216HW,2013-02-05 04:03:00,
2013-02-04 23:04:00,53.9,44.9,30.25,ESE,113,0.0,0.0,71,0.00,,,0.00,WUHU216HW,2013-02-05 04:04:00,
2013-02-04 23:05:00,53.9,44.7,30.25,ESE,113,0.0,0.0,71,0.00,,,0.00,WUHU216HW,2013-02-05 04:05:00,
2013-02-04 23:08:00,53.9,44.7,30.25,ESE,113,0.0,0.0,71,0.00,,,0.00,WUHU216HW,2013-02-05 04:08:00,
2013-02-04 23:10:00,53.9,44.7,30.25,ESE,113,0.0,0.0,71,0.00,,,0.00,WUHU216HW,2013-02-05 04:10:00,
2013-02-04 23:11:00,53.9,44.7,30.25,ESE,113,0.0,0.0,71,0.00,,,0.00,WUHU216HW,2013-02-05 04:11:00,
2013-02-04 23:13:00,53.9,44.7,30.26,ESE,113,0.0,0.0,71,0.00,,,0.00,WUHU216HW,2013-02-05 04:13:00,
2013-02-04 23:14:00,53.7,44.5,30.26,ESE,113,0.0,0.0,71,0.00,,,0.00,WUHU216HW,2013-02-05 04:14:00,
2013-02-04 23:15:00,53.9,44.7,30.26,ESE,113,0.0,0.0,71,0.00,,,0.00,WUHU216HW,2013-02-05 04:15:00,
2013-02-04 23:16:00,53.9,44.7,30.26,ESE,113,0.0,0.0,71,0.00,,,0.00,WUHU216HW,2013-02-05 04:16:00,
2013-02-04 23:19:00,53.9,44.7,30.26,ESE,113,0.0,0.0,71,0.00,,,0.00,WUHU216HW,2013-02-05 04:19:00,
2013-02-04 23:21:00,53.9,44.7,30.25,ESE,113,0.0,0.0,71,0.00,,,0.00,WUHU216HW,2013-02-05 04:21:00,
2013-02-04 23:24:00,53.9,44.7,30.26,ESE,113,0.0,0.0,71,0.00,,,0.00,WUHU216HW,2013-02-05 04:24:00,
2013-02-04 23:27:00,53.9,44.7,30.25,NNE,23,0.0,0.0,71,0.00,,,0.00,WUHU216HW,2013-02-05 04:27:00,
2013-02-04 23:28:00,53.9,44.7,30.26,NNE,23,0.0,0.0,71,0.00,,,0.00,WUHU216HW,2013-02-05 04:28:00,
2013-02-04 23:29:00,53.9,44.7,30.26,NNE,23,0.0,0.0,71,0.00,,,0.00,WUHU216HW,2013-02-05 04:29:00,
2013-02-04 23:30:00,53.9,44.7,30.26,NNE,23,0.0,0.0,71,0.00,,,0.00,WUHU216HW,2013-02-05 04:30:00,
2013-02-04 23:33:00,54.1,44.9,30.26,NNE,23,0.0,0.6,71,0.00,,,0.00,WUHU216HW,2013-02-05 04:33:00,
2013-02-04 23:35:00,54.1,44.9,30.25,NNE,23,0.0,0.6,71,0.00,,,0.00,WUHU216HW,2013-02-05 04:35:00,
2013-02-04 23:39:00,54.1,44.9,30.25,NNE,23,0.0,0.6,71,0.00,,,0.00,WUHU216HW,2013-02-05 04:39:00,
2013-02-04 23:40:00,54.1,44.9,30.25,NNE,23,0.0,0.6,71,0.00,,,0.00,WUHU216HW,2013-02-05 04:40:00,
2013-02-04 23:41:00,54.1,45.0,30.25,North,0,0.0,0.0,71,0.00,,,0.00,WUHU216HW,2013-02-05 04:41:00,
2013-02-04 23:45:00,54.1,44.9,30.25,NNE,23,0.0,0.0,71,0.00,,,0.00,WUHU216HW,2013-02-05 04:45:00,
2013-02-04 23:46:00,54.1,44.9,30.25,NNE,23,0.0,0.0,71,0.00,,,0.00,WUHU216HW,2013-02-05 04:46:00,
2013-02-04 23:47:00,54.3,45.1,30.25,NNE,23,0.0,0.0,71,0.00,,,0.00,WUHU216HW,2013-02-05 04:47:00,
2013-02-04 23:50:00,54.3,45.1,30.24,NNE,23,0.0,0.0,71,0.00,,,0.00,WUHU216HW,2013-02-05 04:50:00,
2013-02-04 23:51:00,54.3,45.1,30.24,NNE,23,0.0,0.0,71,0.00,,,0.00,WUHU216HW,2013-02-05 04:51:00,
2013-02-04 23:53:00,54.3,45.1,30.24,NNE,23,0.0,0.0,71,0.00,,,0.00,WUHU216HW,2013-02-05 04:53:00,
2013-02-04 23:56:00,54.3,45.1,30.24,NNE,23,0.0,0.0,71,0.00,,,0.00,WUHU216HW,2013-02-05 04:56:00,
2013-02-04 23:57:00,54.1,45.1,30.24,NNE,23,0.0,0.0,71,0.00,,,0.00,WUHU216HW,2013-02-05 04:57:00,
2013-02-04 23:59:00,54.3,45.1,30.24,NNE,23,0.0,0.0,71,0.00,,,0.00,WUHU216HW,2013-02-05 04:59:00,